GFSGL_850_thetae_000.txt.gz
Theta_e
299 297 295 294 293 292 291 290 290 293 297 297 296 296 293 292 289 289 288 288 288 288 288 287 287 286 286 285 284 283 283 282 282 282 283 284 285 288 290 290 288 290 293
297 295 295 294 293 292 291 290 290 292 295 295 294 294 293 289 288 288 288 288 287 288 287 287 286 286 284 283 283 283 282 281 282 283 283 283 284 288 289 288 289 289 288
296 295 295 294 293 292 291 290 290 293 293 294 294 292 288 288 288 288 288 287 288 287 287 286 285 284 283 283 282 282 281 281 282 283 283 284 284 286 287 287 287 288 289
295 295 295 294 293 291 291 290 290 292 293 293 291 289 288 289 288 288 288 288 287 287 286 285 284 283 283 282 281 281 280 280 280 281 282 283 285 285 286 286 287 286 286
295 295 294 294 293 291 291 291 290 291 292 292 289 288 289 290 288 288 288 287 287 286 284 283 283 282 281 281 280 280 280 280 280 281 282 282 283 285 286 286 286 286 285
295 294 294 293 291 291 291 291 291 292 292 291 289 290 290 288 288 288 287 286 285 284 282 281 281 280 280 279 279 278 279 279 279 280 281 281 282 283 284 284 284 284 285
294 294 293 292 291 291 291 291 292 292 291 291 290 291 290 288 288 287 286 285 283 281 281 280 279 279 278 278 278 278 279 280 280 281 281 281 281 282 282 283 283 283 283
294 293 292 291 292 291 290 291 291 291 291 291 291 288 288 288 287 286 286 283 282 281 280 279 279 279 278 277 278 279 279 279 279 279 280 280 281 281 281 281 282 282 282
293 291 292 292 292 291 290 291 291 291 291 290 288 288 288 287 286 285 283 281 281 281 279 279 278 278 278 278 278 278 278 279 279 279 279 279 279 280 281 282 281 281 281
291 292 292 292 291 291 290 291 290 290 289 289 289 288 286 286 285 283 281 281 281 280 279 279 278 278 277 277 278 278 278 279 279 279 279 279 279 279 280 281 281 282 282
290 290 291 292 291 291 289 290 290 289 289 288 287 286 286 285 283 281 280 280 279 278 278 278 278 277 277 277 277 277 278 278 278 279 279 279 279 280 280 280 280 281 281
289 289 290 290 291 291 289 289 288 289 288 287 286 287 285 283 282 281 280 280 278 276 276 278 277 276 276 276 276 276 277 277 278 278 279 279 279 280 280 280 281 280 280
289 290 290 290 291 291 288 287 287 288 287 287 287 286 284 282 281 281 280 279 278 277 276 276 276 276 276 276 276 277 277 277 278 278 279 279 280 280 281 281 281 281 282
289 290 289 291 291 291 288 287 287 287 287 287 286 285 283 282 281 280 280 279 278 278 276 276 276 276 276 275 275 276 276 277 277 278 279 280 280 281 281 282 282 283 283
289 289 289 290 290 290 289 287 287 287 286 285 284 283 283 282 281 281 280 279 278 278 277 276 276 276 276 276 275 275 276 276 278 278 279 280 281 282 282 283 283 283 284
289 289 290 290 289 290 289 288 288 287 285 284 284 283 283 282 281 281 280 279 279 278 278 277 277 276 276 275 275 275 274 275 277 278 279 280 280 281 281 282 283 284 284
289 288 288 288 290 289 289 288 287 286 285 284 283 283 283 282 281 281 280 280 279 279 278 278 277 276 276 275 275 275 274 274 276 277 278 279 280 280 280 281 281 282 283
288 288 288 289 289 289 289 289 288 286 285 284 283 283 282 282 281 281 280 280 279 279 278 278 278 277 276 275 275 275 274 274 274 276 277 278 278 279 279 280 280 280 281
289 288 288 288 287 288 288 288 287 286 285 284 283 283 282 282 281 281 281 280 280 279 278 278 277 277 276 276 275 275 274 274 274 275 276 277 278 278 278 279 279 279 279
289 289 288 288 287 287 287 286 286 285 284 284 283 282 282 282 282 281 281 281 280 280 279 279 278 277 276 276 275 275 276 275 274 274 274 275 276 276 277 278 278 278 278
288 288 288 289 287 286 286 285 285 284 283 284 283 283 283 283 282 282 282 281 281 280 279 279 279 277 277 277 277 275 275 274 274 274 274 274 274 275 275 276 277 277 277
288 288 288 288 288 287 286 285 285 285 284 284 284 283 283 283 282 282 282 282 281 280 280 279 279 279 278 277 277 278 276 275 275 274 274 274 274 274 274 274 275 275 276
287 287 287 287 288 288 286 285 285 285 284 284 284 284 283 283 282 282 282 283 282 281 280 280 280 279 278 278 277 277 277 277 277 275 275 275 274 274 273 273 274 274 274
287 287 287 287 288 288 287 287 286 286 285 285 284 284 284 283 283 282 282 282 282 281 281 280 280 279 278 278 278 277 277 277 277 276 276 276 276 275 273 273 273 273 273
287 286 287 287 287 287 287 287 286 287 287 286 286 285 284 284 283 283 283 282 282 282 281 280 280 279 279 278 278 277 277 277 277 276 276 276 276 276 275 273 273 273 274
287 286 287 287 287 288 288 288 287 287 287 287 287 286 285 284 284 283 284 283 282 281 281 280 280 279 279 278 278 277 277 277 276 276 276 276 276 275 275 275 274 274 273

GFSGL_850_thetae_003.txt.gz
Theta_e
299 297 297 297 296 295 293 291 290 290 291 296 297 295 294 294 291 289 288 288 288 288 287 287 287 286 286 285 285 284 284 284 284 284 284 284 285 286 286 288 290 290 289
298 297 297 296 295 294 291 290 290 291 292 295 294 293 293 293 289 289 288 288 288 287 287 286 286 285 285 285 284 284 283 283 283 283 284 284 285 286 286 287 289 289 289
297 296 296 295 294 293 291 290 291 291 291 293 293 292 289 288 289 289 288 288 288 287 287 286 285 284 284 284 283 283 283 282 282 282 282 283 284 285 285 287 288 288 288
296 296 295 294 294 292 290 290 291 291 291 291 292 290 290 289 290 290 288 288 287 287 286 285 284 283 283 283 283 282 282 281 281 281 282 282 283 284 285 286 287 287 287
296 295 294 294 293 291 290 290 291 291 292 291 292 289 289 290 290 289 288 288 287 286 285 283 282 282 281 280 280 281 280 280 280 281 281 281 282 283 284 284 286 286 286
295 295 294 294 293 290 290 290 291 291 292 291 291 290 290 289 290 288 288 287 286 285 283 282 282 281 280 279 279 279 279 279 280 280 281 281 281 282 283 283 283 285 285
295 294 293 293 291 291 291 290 290 291 292 291 291 291 291 289 288 288 287 286 285 283 282 281 280 279 279 278 278 279 279 279 279 279 280 281 281 282 283 283 283 283 284
294 293 293 291 291 292 291 290 290 291 291 291 291 290 289 288 288 287 287 284 282 282 281 280 279 278 278 277 279 279 279 279 280 280 280 281 281 281 281 281 282 283 283
293 292 291 291 291 292 291 291 289 290 290 289 289 289 289 288 286 287 285 283 282 281 280 279 278 278 277 278 279 279 279 279 279 279 280 280 280 280 280 280 281 282 283
291 290 290 290 291 292 292 291 289 290 289 289 288 288 288 286 287 285 283 281 281 280 278 278 279 278 277 277 277 278 278 279 278 278 279 280 280 280 279 279 281 282 283
290 290 290 290 290 291 291 291 290 289 288 288 288 287 286 287 286 284 282 281 280 279 277 277 278 277 276 276 276 277 277 277 277 277 278 279 279 280 280 280 280 281 282
289 289 289 289 290 290 291 291 290 288 287 288 287 286 287 286 284 282 281 280 279 278 277 277 278 277 277 276 276 276 277 277 277 278 278 279 279 279 280 280 280 280 281
289 289 289 290 290 290 291 291 289 288 288 287 287 287 286 285 283 282 281 280 279 278 278 277 277 277 277 276 275 276 276 277 277 278 278 279 280 281 281 281 281 281 281
289 289 289 289 290 290 291 290 288 288 287 287 286 285 284 283 283 282 281 280 279 279 278 277 277 277 276 276 276 275 275 276 277 278 279 280 281 281 282 282 282 282 282
289 289 289 290 290 290 290 289 289 287 287 286 285 284 284 283 283 282 281 280 280 279 279 279 278 278 277 277 276 275 274 275 277 278 279 280 281 281 282 282 283 283 284
289 288 288 288 289 289 289 289 289 288 287 286 285 283 283 283 283 282 281 280 280 280 279 278 279 278 277 276 276 276 275 274 276 278 278 279 280 280 281 281 282 283 284
288 288 289 288 289 289 290 289 289 288 288 286 285 283 283 283 282 282 281 281 280 280 279 279 278 278 278 276 276 276 275 274 274 276 278 278 279 279 280 280 280 281 282
288 289 289 289 288 289 289 289 289 288 288 287 285 284 283 283 282 282 281 281 280 280 280 279 278 278 277 276 276 276 276 275 274 275 276 277 278 278 279 279 279 279 280
288 289 289 289 288 288 287 288 289 288 287 287 285 284 283 283 282 282 282 281 281 281 280 280 279 279 278 277 277 276 275 275 275 274 274 275 276 277 278 278 278 279 279
289 289 289 289 288 288 287 287 287 286 285 285 284 284 283 283 282 282 282 281 281 281 281 280 280 279 279 278 278 278 276 275 274 274 274 274 274 275 275 277 277 278 277
288 288 288 289 288 288 288 287 286 285 285 285 284 284 283 283 283 283 282 282 282 282 282 281 280 280 279 279 278 278 278 276 275 274 274 274 274 274 274 275 276 276 276
288 287 287 287 287 287 287 288 287 287 285 285 285 284 284 284 284 283 283 282 282 282 282 281 281 280 280 279 279 278 277 277 277 276 274 274 274 274 273 273 274 274 275
289 288 287 287 287 287 287 288 288 287 286 285 286 285 284 284 284 284 283 283 282 282 282 282 281 280 280 279 279 278 278 277 277 277 276 275 275 275 274 273 273 273 274
288 288 287 287 286 286 287 287 288 288 287 287 286 286 287 286 285 284 284 284 283 283 282 282 282 281 280 280 279 279 278 278 277 277 277 276 276 276 276 274 273 273 274
287 287 287 287 287 287 287 288 288 287 287 287 287 287 287 287 287 287 286 284 284 283 283 282 282 281 280 280 279 279 278 278 277 277 276 276 276 276 276 276 274 273 274
287 287 287 287 287 287 287 286 287 286 286 286 286 286 286 287 287 287 287 286 285 284 284 283 282 281 281 280 280 279 278 278 277 277 276 276 276 276 275 275 275 275 275

GFSGL_850_thetae_006.txt.gz
Theta_e
300 297 297 297 297 295 294 292 291 290 294 295 296 296 296 295 294 294 292 291 291 290 290 290 289 288 288 288 287 287 287 287 286 286 286 286 286 286 287 287 288 288 290
298 297 297 297 296 295 294 293 292 293 293 294 294 294 294 294 294 292 291 291 291 290 290 289 288 288 287 287 287 287 286 286 285 285 285 285 285 285 285 286 287 288 290
298 297 297 296 295 295 294 293 293 293 294 294 294 294 293 293 291 291 291 291 290 289 289 288 288 287 287 286 286 286 285 285 285 284 284 284 284 284 285 286 286 288 289
298 297 296 295 295 295 294 293 293 293 293 294 294 293 293 291 290 290 290 290 289 289 288 288 287 286 285 285 284 284 284 283 283 283 283 283 283 284 284 285 287 288 288
297 296 296 295 295 295 294 293 292 293 293 294 292 292 291 290 290 290 290 289 289 287 286 285 284 283 282 281 281 282 282 282 282 282 282 283 283 283 284 284 285 286 287
297 296 295 294 294 294 293 293 293 293 293 293 293 292 292 290 291 290 288 288 286 286 284 283 283 282 281 281 280 279 279 280 280 281 282 283 282 283 284 284 285 285 286
296 295 294 293 294 294 293 293 292 292 293 292 293 292 291 290 289 288 288 287 286 284 283 282 282 281 281 281 280 280 281 281 280 280 281 281 282 283 283 283 284 284 285
296 295 293 294 293 293 293 293 293 292 292 291 291 291 291 289 289 288 287 286 284 283 282 282 281 281 281 279 279 280 281 281 281 281 281 281 282 282 282 283 283 283 284
296 294 293 292 293 292 292 293 293 292 291 291 291 290 289 287 288 286 287 285 283 282 282 281 280 280 279 278 279 279 280 280 281 280 279 279 280 280 280 281 281 282 284
293 292 292 292 292 292 292 293 293 292 291 290 289 288 288 287 286 287 286 283 282 282 282 280 279 280 278 277 277 278 279 279 279 279 279 280 281 281 281 281 281 282 283
291 291 292 291 291 292 292 292 292 292 291 288 287 288 287 286 287 286 285 283 281 280 281 280 279 278 279 278 276 277 277 277 278 279 279 280 281 281 282 282 282 282 282
290 290 291 291 290 291 292 292 292 291 290 288 288 287 286 287 286 285 283 282 281 280 280 280 278 278 277 277 277 276 276 276 278 278 279 280 281 281 281 282 282 282 282
290 290 290 291 291 291 291 292 291 290 289 289 288 288 288 287 284 284 283 282 281 280 280 279 279 278 278 278 277 277 277 277 277 278 279 279 279 280 281 282 282 282 282
290 290 290 290 289 290 291 291 291 290 290 288 288 288 287 286 285 284 283 282 281 281 280 279 279 279 279 279 278 278 277 276 276 277 277 278 279 281 282 283 284 284 283
290 290 290 290 289 289 289 291 290 290 289 289 288 287 286 285 285 284 283 282 281 281 280 280 280 280 279 280 279 278 277 276 276 276 277 278 279 280 281 282 283 284 285
290 290 290 290 290 289 289 290 289 289 289 288 287 287 285 283 283 283 283 282 281 281 280 280 281 280 280 279 279 279 278 277 275 275 276 277 278 278 280 281 282 283 284
289 289 290 290 290 290 289 289 289 290 289 288 288 287 286 284 283 283 282 282 281 281 280 281 281 281 280 280 279 278 278 277 276 275 276 276 277 278 279 280 281 281 282
289 289 289 290 290 290 290 289 289 289 289 288 288 287 286 285 283 283 283 282 281 282 281 281 281 281 280 280 280 279 277 276 276 275 275 275 276 277 278 279 279 279 280
290 290 290 289 289 289 288 288 288 288 288 287 287 286 286 285 284 283 283 282 282 282 283 282 282 281 281 280 279 278 277 277 275 275 275 275 275 276 277 278 278 279 279
290 290 289 288 288 288 288 288 288 288 288 287 287 287 286 285 285 284 283 283 283 282 283 283 282 282 281 280 279 278 277 277 276 275 275 275 275 275 276 276 277 278 279
291 290 288 288 288 287 289 288 288 288 288 288 287 286 286 285 285 284 284 284 284 283 283 283 283 282 281 280 279 278 278 277 277 277 276 275 275 275 275 275 276 277 278
290 290 289 289 288 287 287 287 287 287 288 288 288 287 286 286 285 284 284 284 284 284 283 283 282 283 282 281 280 279 278 277 277 277 277 276 275 275 275 275 275 275 276
291 290 290 289 288 288 287 286 286 287 287 287 288 288 286 286 286 286 286 285 284 284 283 283 282 283 282 281 281 280 279 278 277 278 277 277 276 275 275 275 275 274 274
290 289 288 288 287 287 287 287 287 287 288 287 287 287 287 287 287 287 287 287 287 286 284 284 283 283 282 282 281 280 280 279 278 278 278 277 276 275 275 275 275 274 274
289 288 288 287 287 287 287 287 287 287 287 287 287 287 287 286 286 286 286 286 286 286 286 285 284 283 283 282 281 281 280 279 278 278 278 277 277 276 276 275 275 275 274
289 289 288 286 286 287 287 287 287 287 286 286 286 286 286 285 285 285 285 285 285 285 285 285 285 284 284 283 282 281 280 279 278 278 277 277 277 276 276 275 275 274 274

GFSGL_850_thetae_009.txt.gz
Theta_e
304 301 300 300 300 299 298 296 296 295 295 295 295 296 296 296 296 295 295 295 293 293 292 292 291 291 290 290 289 289 288 288 289 288 288 287 287 287 286 286 286 287 288
302 302 300 300 299 298 297 296 296 295 295 295 295 295 295 295 294 294 293 293 292 292 292 291 290 290 289 289 288 288 288 288 287 287 286 286 286 286 285 285 286 287 287
301 300 300 300 299 298 297 296 295 295 295 295 295 295 294 294 294 294 292 292 292 292 291 291 290 289 288 287 287 287 286 286 286 285 285 285 284 284 285 285 285 287 287
300 300 299 299 299 298 297 296 295 294 294 295 295 294 294 293 292 292 292 291 291 291 291 289 288 287 286 285 284 284 284 284 284 284 284 284 284 284 284 285 285 286 287
300 299 299 299 298 297 297 296 295 294 294 294 294 294 294 293 292 290 291 291 290 289 288 287 286 285 284 283 282 282 282 282 282 282 282 282 283 284 284 284 285 285 286
299 299 299 298 297 296 296 295 295 294 294 294 294 294 294 293 292 290 289 288 288 288 287 286 285 284 284 282 282 281 281 281 281 282 282 282 282 283 283 284 284 285 285
299 298 298 297 296 296 295 295 294 294 294 294 293 293 294 293 292 289 288 288 287 287 286 285 284 284 283 283 282 281 281 281 282 282 282 282 283 283 283 283 284 284 285
298 297 297 296 295 295 294 294 294 294 294 293 293 292 292 292 291 289 288 287 287 286 285 284 284 283 282 282 279 280 281 281 282 282 282 281 281 281 281 281 282 283 283
298 296 297 295 294 294 294 294 294 294 294 293 293 292 291 291 290 288 287 287 286 285 284 284 283 281 281 279 280 280 280 281 281 280 280 280 280 280 280 281 281 282 282
297 297 294 294 294 293 293 293 293 294 293 293 292 291 290 289 288 288 287 287 285 284 284 283 282 281 280 278 278 277 279 280 278 278 279 280 281 282 282 282 282 282 283
296 295 294 293 293 293 293 293 293 293 293 293 292 290 289 288 287 287 287 285 283 283 283 283 283 281 279 278 278 278 278 276 277 279 280 280 281 282 283 283 283 283 283
295 294 293 293 293 293 293 293 293 293 293 292 291 290 289 288 287 287 285 284 283 282 282 282 281 280 280 279 279 278 278 279 279 279 279 281 281 281 281 282 282 283 283
291 291 293 293 292 292 292 292 293 293 292 292 291 290 289 289 288 287 285 284 283 283 282 281 281 280 281 281 280 280 279 280 278 278 279 279 280 280 281 283 284 284 283
290 291 291 290 291 291 291 292 292 292 292 291 291 290 289 288 288 287 286 284 283 282 282 282 281 281 281 281 281 281 280 280 278 278 279 279 280 280 281 282 283 284 285
290 290 290 290 291 292 291 291 292 292 291 291 290 290 289 287 287 286 286 285 284 283 282 281 282 282 282 282 282 281 281 280 279 278 278 278 279 280 281 281 282 283 285
290 290 290 291 291 292 291 290 290 290 290 290 289 289 288 287 287 284 283 283 283 282 282 281 282 282 282 282 282 281 281 280 279 277 278 278 278 279 280 281 282 282 283
290 290 290 291 292 292 291 290 290 291 291 290 289 288 288 288 287 285 283 283 283 282 281 282 282 282 282 282 282 281 281 280 278 279 278 278 278 278 279 280 281 281 282
290 290 291 291 291 291 291 290 290 290 290 290 290 289 288 287 287 286 284 283 283 282 282 282 283 283 282 282 282 281 280 279 279 278 277 277 277 277 279 280 280 280 280
291 291 291 291 290 290 290 289 289 289 289 289 289 288 288 287 287 286 285 283 283 283 283 284 284 283 283 282 282 281 280 279 278 277 277 277 277 277 278 278 279 279 280
292 292 291 291 290 289 289 289 289 290 289 289 289 288 288 288 287 286 286 285 284 284 284 283 284 283 283 282 282 281 280 279 279 278 278 277 277 277 278 277 278 279 279
293 293 292 291 290 290 289 289 288 289 289 289 289 289 289 288 287 287 287 286 285 285 285 284 284 283 283 283 282 281 280 280 279 278 277 277 277 276 277 277 277 277 278
292 292 292 292 291 290 290 289 288 288 288 288 287 288 288 288 288 287 287 287 286 285 285 285 285 284 284 283 283 282 281 280 279 278 277 277 277 277 277 277 277 277 277
291 292 291 291 290 290 289 289 288 288 287 287 287 287 288 289 288 288 287 287 287 287 287 286 284 284 284 283 283 283 281 280 279 278 278 277 277 277 277 277 277 277 277
291 291 291 291 290 289 289 288 288 288 287 287 287 287 287 288 288 288 287 287 286 286 286 286 286 285 284 284 283 283 282 281 280 280 279 278 277 277 276 276 276 276 276
290 290 291 290 289 289 288 287 287 288 287 287 287 287 287 287 287 287 287 287 286 286 285 286 285 285 285 285 284 283 283 282 281 280 279 278 278 277 277 276 275 276 276
287 288 288 289 289 289 287 286 287 288 287 287 286 286 286 285 285 285 285 284 284 284 284 285 285 285 285 284 285 284 283 282 281 280 279 278 278 277 276 275 275 276 276

GFSGL_850_thetae_012.txt.gz
Theta_e
306 308 305 304 300 299 298 297 296 295 294 295 295 295 295 296 295 295 295 294 294 294 293 293 292 291 290 290 289 289 288 288 288 288 287 287 286 286 285 285 285 285 285
306 304 304 301 300 300 299 298 297 295 295 295 295 295 295 295 295 294 294 294 293 293 293 292 291 291 290 289 288 287 288 287 287 286 286 285 285 284 284 284 284 285 285
305 303 302 301 301 300 299 298 297 296 295 295 295 295 295 295 294 294 293 292 292 292 292 291 290 289 288 287 287 286 286 284 284 284 284 284 283 283 283 284 284 284 285
304 302 301 301 300 300 299 298 297 296 295 294 295 295 295 294 293 292 292 292 292 292 291 290 289 287 287 286 285 284 283 282 282 282 282 282 282 282 282 283 283 283 284
303 301 301 300 300 300 298 297 297 296 295 294 294 294 295 294 294 293 292 290 289 289 288 288 288 287 286 285 284 283 283 282 281 281 281 281 282 282 282 283 283 283 284
302 300 300 300 299 298 297 296 296 296 295 295 294 294 294 294 294 293 292 289 287 288 288 287 287 285 285 284 283 283 282 281 281 281 281 282 282 282 283 282 282 282 283
301 300 300 299 298 299 296 296 296 295 295 295 294 294 293 293 293 293 291 288 288 288 287 286 285 285 284 284 283 282 280 281 281 281 282 282 282 281 281 281 280 280 281
301 300 299 298 298 296 295 295 295 294 294 295 294 294 293 293 292 292 291 289 288 287 286 285 285 284 284 282 281 279 279 280 281 281 281 280 280 280 280 280 280 280 281
300 298 299 298 296 295 294 294 294 294 294 294 294 294 293 292 291 291 290 288 287 286 285 284 284 284 282 282 280 279 279 279 280 280 278 279 279 280 281 282 281 281 281
299 298 296 297 295 294 294 293 293 293 293 294 294 293 292 291 290 289 289 287 287 286 284 283 283 283 283 282 280 279 279 279 278 279 279 280 280 281 282 282 283 282 282
297 296 297 294 294 293 293 293 293 293 293 293 293 293 293 291 289 288 287 287 285 285 283 282 283 283 283 280 280 280 280 279 279 279 278 279 280 281 281 281 282 282 283
296 296 294 293 293 293 292 291 292 292 293 293 293 293 292 290 289 288 288 287 285 284 283 282 282 282 281 281 281 281 280 280 279 279 278 279 279 280 280 281 282 283 284
294 294 292 291 291 291 290 290 290 292 293 293 292 292 291 290 289 289 288 287 286 284 283 282 282 281 282 281 281 282 281 280 280 279 278 278 279 279 280 281 282 283 284
294 291 290 290 290 290 291 291 290 292 293 292 292 291 291 289 289 288 287 287 286 285 283 283 282 281 282 282 282 281 281 281 280 279 279 278 278 279 280 280 281 282 283
290 290 290 290 290 291 291 292 291 290 292 292 291 291 291 290 289 288 287 285 286 285 284 283 282 282 282 282 281 281 281 281 280 280 279 278 278 278 279 280 281 282 282
290 290 290 290 290 290 291 292 291 290 290 290 290 290 290 290 290 288 287 286 284 284 283 283 282 282 282 282 282 281 282 281 281 280 278 278 278 278 278 280 280 281 281
290 290 290 290 290 291 292 291 291 290 290 290 290 290 290 289 289 288 287 287 284 283 283 283 282 282 283 282 282 282 282 281 280 279 278 278 278 278 278 279 279 280 280
290 290 291 291 291 292 292 291 291 291 290 289 289 289 289 289 289 288 287 286 285 283 283 283 282 282 282 283 283 282 282 281 280 279 278 278 278 278 278 278 278 279 279
291 291 291 292 292 292 290 290 289 289 289 290 290 289 289 288 288 288 287 286 285 284 284 283 283 283 284 283 283 283 282 281 280 279 279 278 278 277 278 278 277 278 279
292 292 292 292 292 292 291 291 290 290 289 288 289 289 290 289 288 288 288 287 286 285 285 284 284 283 283 284 284 283 282 281 280 280 279 278 278 278 277 278 277 277 278
293 293 293 293 293 292 292 291 291 291 290 289 289 288 288 288 289 289 288 288 287 287 286 285 285 285 284 284 284 283 283 282 280 280 279 278 277 278 277 277 277 277 277
291 291 291 291 291 291 291 291 291 290 290 289 289 288 288 287 288 288 289 288 288 287 287 287 286 286 285 285 285 284 283 283 282 280 280 279 278 278 277 277 277 277 277
287 288 290 291 290 290 290 290 290 289 289 288 288 288 287 287 287 287 288 288 289 288 287 287 286 286 286 286 285 284 284 283 283 282 280 280 279 278 277 277 277 277 277
284 284 285 286 288 288 289 289 290 289 289 288 288 288 287 287 287 287 288 288 288 288 287 286 286 286 286 286 286 285 284 283 283 282 281 280 279 278 278 277 277 277 276
282 283 284 285 285 287 288 288 289 289 287 287 288 287 287 287 287 287 287 287 287 286 286 286 286 285 285 285 285 285 285 285 283 283 282 280 279 278 278 278 277 277 276
280 281 283 284 286 287 287 288 288 287 286 288 287 287 286 286 285 285 285 284 284 284 284 284 283 283 283 284 284 285 284 285 284 283 283 281 280 278 278 278 277 277 277

GFSGL_850_thetae_018.txt.gz
Theta_e
320 318 315 312 309 308 307 302 302 298 299 295 294 293 292 291 293 294 295 295 294 294 293 293 293 292 292 291 291 290 288 287 286 286 285 283 283 282 282 282 282 281 282
323 317 314 312 310 308 305 300 300 300 298 296 295 294 292 292 294 295 295 294 292 293 293 292 292 291 291 289 288 287 286 286 285 284 283 282 281 281 281 281 281 281 281
316 314 313 311 308 307 304 301 300 300 298 297 296 294 293 293 294 295 295 294 293 292 292 291 290 289 289 288 287 287 286 285 284 283 282 281 281 281 281 281 281 281 282
315 314 312 310 307 305 303 301 300 299 298 297 296 295 294 294 294 295 294 294 293 293 292 291 291 287 286 287 286 285 284 284 283 282 281 280 281 281 281 281 281 281 280
315 313 311 307 306 303 301 301 299 298 297 296 295 295 295 294 294 294 294 293 293 293 292 291 288 287 287 286 285 285 284 284 283 281 279 279 280 280 280 280 280 280 280
315 312 307 305 303 301 301 299 298 296 295 295 296 295 295 294 294 294 294 293 293 293 292 290 289 288 287 285 284 284 283 283 281 279 279 279 280 280 280 279 279 279 280
314 308 306 304 301 301 299 298 298 298 299 295 294 295 295 294 295 294 293 293 293 292 291 290 288 287 286 284 284 283 283 282 280 279 279 279 279 279 279 279 280 281 281
309 306 303 301 301 299 298 298 298 299 295 294 294 294 293 294 294 294 293 293 292 291 290 289 287 286 285 284 283 283 282 282 280 281 280 280 279 278 279 280 281 281 281
308 304 301 300 299 298 298 299 299 297 294 294 293 293 293 293 294 293 293 292 291 290 289 287 286 284 284 283 283 282 282 281 281 280 280 279 278 279 280 280 280 280 280
301 299 298 297 297 298 299 299 298 294 293 293 293 293 292 292 293 293 292 292 291 289 287 287 286 284 283 283 282 282 281 281 281 280 280 280 279 279 278 279 279 280 280
298 298 297 297 298 299 299 295 294 293 292 291 290 290 291 292 293 293 292 291 289 288 287 286 286 285 283 283 282 281 281 281 281 280 280 280 279 279 278 279 279 280 280
298 298 298 300 300 298 294 294 292 291 290 290 290 291 292 292 293 293 292 290 289 288 287 286 285 285 283 282 281 281 281 281 281 281 280 280 279 279 278 278 279 280 280
300 301 300 299 296 294 291 290 290 290 290 290 290 291 292 292 292 292 291 290 289 288 288 287 285 285 284 283 282 281 281 281 281 281 281 280 280 279 278 278 279 280 281
297 295 293 292 290 290 290 290 290 290 290 290 291 290 290 291 291 291 291 290 289 289 288 287 286 285 284 284 283 282 282 281 281 281 281 280 280 279 278 278 279 280 280
290 290 290 290 290 290 290 290 290 290 290 291 291 291 290 290 289 290 290 290 290 290 288 287 287 286 285 283 283 282 282 281 281 281 281 280 280 278 278 278 278 279 279
290 290 290 290 290 290 290 290 290 290 290 291 291 291 290 290 290 289 289 290 289 290 289 288 287 287 286 284 283 282 282 282 281 281 281 281 280 278 278 278 277 278 278
291 291 291 291 291 291 291 291 291 291 291 291 291 291 290 289 289 289 289 289 289 289 288 288 288 287 286 285 283 283 282 282 281 281 281 281 280 278 278 278 277 277 278
291 291 291 291 291 291 292 292 292 292 292 291 291 291 291 290 290 289 289 289 289 289 288 288 287 287 286 285 283 283 282 282 282 282 282 282 281 280 278 278 277 277 277
291 290 290 290 289 289 289 289 290 290 290 291 292 291 291 291 291 290 288 288 289 289 288 288 288 287 287 286 284 283 283 283 283 282 282 282 282 280 279 278 278 277 277
286 284 283 283 282 282 282 282 284 286 288 290 290 290 290 289 290 290 289 289 288 288 288 288 288 288 287 286 285 284 283 283 283 283 283 283 282 281 279 278 278 278 277
281 281 280 280 280 281 281 281 282 282 283 283 284 286 286 287 289 289 289 288 288 288 287 287 288 288 288 287 286 285 284 284 283 283 283 283 283 282 281 279 278 278 277
280 280 280 280 279 279 280 280 281 282 282 283 284 285 285 288 288 288 288 288 288 288 287 287 287 287 287 288 287 286 285 285 285 284 284 284 283 282 282 280 278 278 278
278 278 279 279 279 279 279 279 279 280 282 283 284 285 286 286 287 287 288 288 287 287 287 287 287 287 287 288 287 286 286 286 286 285 285 284 284 283 282 281 279 278 278
277 277 277 277 277 277 277 277 277 278 279 279 279 281 284 286 288 288 288 287 287 287 286 287 287 287 287 286 287 286 286 286 285 285 285 285 284 283 283 282 280 278 278
276 276 276 276 276 275 276 276 276 276 276 277 278 278 278 279 281 283 284 285 286 286 286 286 285 286 285 286 286 286 285 285 284 285 285 285 285 284 283 282 280 278 278
275 274 275 274 274 274 274 274 274 274 274 275 275 276 276 277 278 278 279 280 282 283 284 284 284 284 284 284 284 284 284 283 284 284 284 284 284 284 283 283 281 279 278

GFSGL_850_thetae_021.txt.gz
Theta_e
326 325 322 318 316 313 310 307 305 301 302 300 297 297 295 295 294 292 294 294 295 294 293 292 292 292 292 291 291 290 289 287 286 286 285 283 282 282 282 282 282 281 281
325 323 320 317 314 312 309 308 306 302 300 300 296 297 295 293 293 293 293 294 294 293 292 292 292 292 291 290 289 288 287 286 285 284 284 283 282 281 281 282 282 281 281
322 320 317 316 314 310 309 308 304 301 301 298 297 295 295 296 294 293 294 294 294 294 292 292 292 291 291 287 286 287 286 285 284 284 283 282 281 280 281 281 281 281 281
320 318 317 316 312 311 309 306 303 301 301 298 297 296 296 295 294 294 294 294 294 294 293 293 292 291 288 288 287 287 285 284 284 283 282 281 280 281 280 280 281 280 279
320 318 317 313 312 309 307 303 301 300 298 297 296 299 295 295 295 294 294 294 294 294 293 293 292 290 289 288 287 286 284 284 283 282 281 280 280 280 280 279 279 280 280
318 318 314 312 310 307 304 301 299 297 296 295 298 298 295 295 295 295 295 294 294 294 293 293 292 290 289 287 286 285 284 283 283 282 281 280 280 280 279 279 279 279 280
317 315 313 311 307 304 301 299 297 296 296 297 300 295 294 294 294 293 294 294 294 293 293 292 291 290 288 286 286 284 283 283 282 281 280 280 280 279 279 278 279 280 280
315 312 310 306 304 302 300 297 297 298 298 300 299 294 294 293 293 293 293 294 293 293 292 292 290 289 287 285 284 283 283 282 282 281 280 280 280 279 278 278 279 280 280
311 309 307 305 301 298 298 298 298 299 300 298 294 293 293 292 292 292 293 293 293 292 292 291 289 287 286 284 283 283 282 282 281 281 280 280 279 279 279 278 278 279 279
308 305 302 299 297 298 299 298 299 299 298 294 293 291 290 290 290 290 292 292 292 292 291 290 288 286 285 285 283 283 282 281 281 281 280 280 279 279 279 278 278 278 279
301 299 297 298 298 298 299 299 299 297 294 292 291 290 290 290 290 291 292 292 292 292 290 288 287 286 285 284 283 282 281 281 281 281 280 280 280 280 279 279 278 278 278
298 299 300 300 299 300 299 297 295 293 291 290 290 290 290 289 290 291 292 292 292 291 290 289 288 286 286 284 283 282 282 281 281 281 280 280 280 280 279 278 278 278 279
299 300 298 298 296 294 293 291 290 290 290 290 290 289 290 290 289 291 292 291 291 291 290 289 288 287 286 285 284 283 283 281 281 281 281 281 280 280 279 278 278 278 279
293 291 290 290 290 290 290 290 290 289 289 289 290 290 290 290 291 290 290 290 290 290 290 290 289 288 286 286 285 284 283 282 281 281 281 281 280 280 279 278 278 278 278
290 290 290 290 290 290 290 290 290 290 290 290 290 290 290 290 290 290 290 289 289 289 289 289 289 288 287 287 286 285 283 283 282 281 281 281 281 280 279 278 278 278 277
290 290 290 290 290 290 290 290 290 290 290 291 291 291 291 291 291 291 290 289 290 289 289 289 289 289 288 287 287 286 284 283 282 281 281 281 281 281 279 278 278 278 277
290 290 290 290 290 290 290 290 290 290 290 290 290 291 291 291 291 291 290 290 289 289 289 288 289 289 289 288 287 286 285 283 282 281 281 281 281 281 280 279 278 278 278
290 290 289 288 286 285 284 283 282 283 284 284 286 288 288 289 289 290 290 290 289 288 288 289 288 288 288 288 287 286 285 283 283 282 282 282 282 281 281 280 278 278 278
286 285 283 282 282 281 281 281 281 281 281 281 281 281 281 284 287 288 288 289 289 289 289 287 288 288 288 288 288 287 286 285 283 282 282 282 282 282 281 280 279 278 278
282 281 281 280 280 280 280 280 280 280 280 280 280 281 282 283 283 284 286 286 286 288 289 288 287 287 287 287 288 288 287 286 284 283 283 283 283 282 282 281 280 278 278
280 280 279 279 279 279 279 279 279 278 278 278 279 280 282 283 283 284 285 286 286 287 288 288 287 287 287 287 287 287 287 286 284 283 283 283 283 283 282 282 281 279 278
279 278 278 277 277 277 277 277 277 277 277 277 278 279 279 281 281 283 285 286 287 287 287 288 287 287 287 286 287 287 287 287 285 284 284 284 284 283 283 282 281 280 278
277 277 277 276 276 276 276 276 276 276 276 276 276 277 278 278 278 279 283 286 286 287 287 287 287 286 286 287 287 287 287 287 286 285 285 285 285 284 284 283 282 281 279
276 276 276 276 275 275 275 275 275 274 274 274 275 275 276 277 277 279 278 278 281 284 285 286 286 286 286 286 286 286 286 286 286 286 286 285 285 285 284 283 282 282 279
275 275 275 275 274 274 274 273 273 273 273 273 273 273 274 274 275 276 277 279 278 279 281 283 285 285 285 285 285 285 286 286 286 285 285 285 285 285 284 284 283 282 280
275 274 274 273 273 273 272 272 272 272 272 271 271 271 272 272 273 274 275 276 277 278 278 279 281 283 283 284 284 285 285 285 284 284 284 284 284 284 284 284 283 282 281

GFSGL_850_thetae_024.txt.gz
Theta_e
326 327 325 325 325 324 322 317 313 310 309 305 301 301 298 295 296 293 297 293 294 294 293 291 291 292 292 292 291 290 289 289 287 286 285 284 283 283 281 281 281 281 281
326 325 324 323 324 321 318 316 311 310 305 301 300 299 296 294 295 299 293 293 293 293 293 293 292 292 292 292 291 288 287 286 286 285 284 284 283 282 281 281 281 281 281
325 324 323 324 322 318 316 314 311 307 302 300 299 297 296 297 299 294 294 294 294 294 294 294 293 292 292 291 289 288 287 287 285 284 284 283 282 281 281 281 281 281 280
325 324 323 322 319 316 315 311 308 303 301 300 298 297 296 298 298 295 294 294 294 294 294 294 293 293 292 291 288 288 287 286 285 284 283 282 281 281 280 280 281 280 280
325 322 320 317 315 315 312 308 304 302 299 299 297 296 298 300 296 295 295 295 294 294 294 294 294 293 292 291 289 288 287 286 284 283 283 282 281 280 280 280 279 279 280
321 320 317 315 314 314 309 304 302 299 298 297 296 297 298 300 296 295 295 295 294 294 294 294 293 293 292 290 289 288 286 285 283 283 282 282 280 280 280 279 279 279 279
317 317 315 314 313 312 306 303 300 298 297 296 297 297 299 298 295 294 293 294 293 293 294 294 293 293 292 290 288 286 285 284 283 282 282 281 280 280 279 279 279 279 279
314 314 313 310 307 304 303 300 297 297 296 296 297 299 298 296 294 293 292 292 292 293 294 294 293 292 291 289 287 286 284 283 283 282 281 280 280 280 279 279 279 279 279
311 309 307 305 305 302 299 297 297 297 297 297 298 299 297 294 292 291 290 290 290 292 293 293 292 291 290 288 286 285 284 283 282 281 281 280 280 279 279 279 279 278 278
306 305 303 301 299 298 297 298 298 299 299 298 299 296 294 291 290 290 290 290 291 292 292 292 292 291 289 287 285 285 284 283 282 281 281 280 280 280 279 279 279 278 278
301 300 299 299 299 299 299 299 299 299 299 297 295 293 291 290 290 289 289 290 291 292 292 292 291 290 288 287 286 285 284 282 281 281 281 280 280 280 280 279 279 278 278
297 298 298 299 300 299 298 297 296 294 292 291 290 290 290 289 289 290 289 290 291 292 292 291 291 289 288 287 286 286 284 282 282 281 281 281 280 280 280 280 279 279 278
299 297 294 292 291 291 291 290 290 290 290 289 289 289 289 289 289 290 290 290 290 292 291 290 290 290 288 287 287 287 286 283 283 282 281 281 281 280 280 280 279 279 279
291 291 290 290 290 290 290 290 290 290 289 289 289 290 289 290 290 290 290 290 290 289 290 290 290 289 289 289 288 287 286 286 283 283 282 281 281 281 281 280 279 279 279
291 290 290 290 290 290 290 290 290 290 290 290 291 291 291 291 291 291 291 291 291 290 290 289 289 289 289 289 289 288 287 286 285 284 283 281 281 281 281 280 279 278 278
290 290 290 290 290 290 289 289 288 287 285 284 284 285 286 287 287 288 289 290 291 291 291 289 289 289 288 288 289 289 288 287 286 284 283 282 281 281 281 281 280 278 278
290 289 288 287 285 284 283 283 283 284 282 281 281 281 281 281 281 282 286 287 288 289 290 290 289 289 289 288 288 288 288 288 287 285 283 282 281 281 281 281 280 279 278
286 285 283 283 282 282 281 281 280 280 281 281 280 280 280 280 281 282 282 282 283 286 288 288 288 289 289 289 288 288 288 288 287 285 283 282 281 281 281 281 281 280 278
283 282 282 281 281 280 280 279 279 279 279 279 279 279 279 280 280 282 282 282 283 284 285 286 287 288 288 288 287 287 287 287 287 285 284 283 282 282 282 281 281 280 279
281 281 280 280 279 279 278 278 278 277 278 277 278 278 278 278 279 279 280 281 282 282 284 284 285 285 287 288 287 287 286 286 286 286 285 283 282 282 282 282 282 281 280
280 279 279 278 278 278 277 277 276 276 276 276 276 276 276 276 277 278 278 278 279 281 284 285 286 287 286 286 286 287 286 287 287 287 286 284 283 283 283 282 282 282 281
279 278 278 277 277 276 276 276 275 275 275 275 275 275 275 276 276 276 276 277 278 278 280 285 286 286 287 287 287 286 286 287 286 286 286 284 283 283 283 283 283 282 282
278 277 277 276 276 276 275 275 274 274 274 273 273 273 274 274 274 274 274 276 277 278 278 279 284 285 285 285 286 286 286 286 286 286 286 284 284 283 283 283 283 283 282
276 276 276 275 275 274 274 274 273 273 273 272 272 272 272 272 272 273 273 274 275 277 278 279 278 280 284 284 285 286 286 285 285 285 286 285 285 285 284 284 284 283 282
275 275 275 274 274 274 273 273 272 272 272 272 271 271 271 271 271 272 272 273 274 275 276 277 278 278 280 282 284 285 285 284 284 285 285 286 285 285 285 285 284 283 283
274 274 274 274 273 273 273 272 272 271 271 271 270 270 270 270 270 271 271 272 273 274 275 276 276 278 278 279 281 283 283 284 284 284 284 284 284 284 284 284 284 284 283

GFSGL_850_thetae_027.txt.gz
Theta_e
326 326 326 325 324 323 322 323 321 317 315 312 304 307 300 299 300 296 296 300 297 294 294 293 292 291 291 291 292 292 291 290 289 289 287 286 285 284 283 282 282 282 282
325 326 325 325 324 323 322 323 322 321 317 309 305 302 299 301 296 296 299 296 293 294 293 293 294 293 293 292 292 292 291 289 288 288 287 285 284 283 282 282 281 281 281
324 324 325 325 324 323 322 321 321 318 313 303 300 298 299 297 297 299 301 295 294 294 294 294 294 294 293 293 292 291 290 288 287 287 286 285 284 283 282 281 281 281 281
326 326 325 325 324 322 320 319 317 315 308 302 298 297 296 296 299 299 300 295 294 294 294 294 294 294 294 293 292 292 291 288 287 286 285 284 283 282 281 281 281 281 281
323 322 322 322 321 319 318 316 313 308 304 299 298 298 296 297 298 299 298 294 295 295 295 295 294 294 294 293 292 292 290 288 287 286 285 284 283 282 281 281 281 281 281
315 317 317 317 316 316 314 312 307 303 299 298 298 297 298 297 297 299 295 295 294 294 294 294 294 294 294 293 292 292 289 288 287 285 284 283 283 282 281 281 281 281 281
315 315 315 314 313 312 310 308 305 301 298 297 296 296 297 297 298 298 297 294 293 293 293 293 293 294 294 293 292 291 289 288 286 284 283 283 282 281 281 281 281 281 281
314 313 312 311 310 309 308 305 300 298 297 296 297 298 298 297 298 298 295 293 292 291 291 291 292 293 293 293 292 291 289 286 285 283 283 282 281 281 280 280 280 280 280
311 309 307 306 305 304 302 301 300 300 299 299 298 297 298 298 298 294 292 290 290 290 289 290 291 293 293 293 292 290 288 286 284 283 283 282 281 281 280 280 281 281 280
306 304 303 302 301 301 301 301 300 298 298 297 298 298 298 296 293 292 290 290 289 289 290 290 292 293 293 292 291 289 287 286 284 283 282 281 281 281 280 280 281 280 280
300 299 299 299 299 298 298 299 299 298 298 297 295 294 292 291 290 290 290 290 290 289 290 291 292 292 292 291 291 289 287 286 285 283 282 281 281 281 281 281 281 280 279
298 298 298 299 299 299 297 295 294 292 291 290 290 290 289 289 289 289 289 289 290 290 290 290 292 292 291 291 290 289 287 286 286 284 283 282 281 281 281 281 280 280 279
298 296 293 292 291 290 290 290 290 290 290 290 290 290 290 290 290 290 290 290 290 290 290 290 290 291 291 290 290 290 288 287 286 286 285 283 282 281 281 281 281 280 279
291 291 290 290 290 290 290 290 290 290 289 289 288 287 286 286 286 287 287 288 289 290 291 291 291 290 290 290 290 289 289 288 287 287 286 285 283 282 281 281 281 280 279
290 290 290 290 290 289 288 287 285 284 283 282 282 282 281 281 281 281 281 282 284 286 287 288 289 289 290 290 289 289 289 289 288 287 286 286 284 282 281 281 281 281 279
290 289 288 287 286 285 284 283 283 282 281 281 280 280 280 280 280 280 280 281 281 281 281 285 286 287 288 289 290 289 289 288 288 287 287 286 285 283 282 281 281 281 280
287 286 285 284 283 283 282 282 281 281 280 280 279 279 278 278 279 279 280 280 282 282 283 283 283 286 288 288 288 288 289 288 288 288 288 286 285 284 282 281 281 281 280
284 284 283 282 282 281 281 281 280 279 279 278 278 278 278 278 278 278 279 279 280 281 281 282 284 285 286 286 286 287 288 289 288 288 288 286 286 284 282 281 281 281 280
283 282 282 281 280 280 279 279 279 278 278 277 277 277 277 277 277 278 278 278 278 278 278 280 281 283 284 285 286 286 286 287 288 287 287 286 286 284 282 281 281 281 281
282 281 280 280 279 279 278 278 277 277 277 276 276 276 276 276 276 276 276 276 276 277 277 277 279 281 284 285 285 286 286 286 286 286 286 286 285 284 283 282 282 281 281
280 280 279 278 278 278 277 277 276 276 275 275 275 275 274 274 274 274 272 274 274 275 276 276 278 279 281 285 286 286 286 285 285 286 286 286 286 285 283 282 282 282 282
279 278 278 277 277 277 276 276 275 275 274 274 274 274 274 274 273 273 273 273 273 274 274 275 276 278 278 281 284 285 286 286 286 286 286 286 286 285 283 282 282 282 282
278 277 277 276 276 275 275 275 274 274 273 273 273 273 273 272 272 272 272 272 273 273 274 275 276 277 278 278 281 283 284 285 286 286 286 286 286 285 283 283 283 283 283
277 276 276 275 275 274 274 274 273 273 272 272 272 271 271 271 271 271 271 271 272 273 273 274 275 275 276 278 278 281 283 284 285 285 285 285 285 285 283 283 283 283 283
275 275 275 274 274 273 273 272 272 272 271 271 271 271 271 271 271 270 270 271 271 272 273 274 274 275 276 277 278 278 281 283 284 284 284 284 285 285 284 284 284 284 284
274 274 273 273 273 272 272 271 271 271 270 270 270 270 270 270 270 270 270 270 270 271 272 273 274 275 275 276 277 278 279 281 282 283 283 283 284 285 285 285 285 284 284

GFSGL_850_thetae_030.txt.gz
Theta_e
330 329 327 327 326 326 323 323 323 322 321 318 314 314 312 301 306 299 297 299 299 300 299 297 297 296 295 295 295 294 294 294 293 293 292 291 290 289 287 287 286 284 284
329 329 327 326 326 326 324 323 322 322 321 319 315 313 305 300 300 297 296 298 300 301 298 297 296 295 295 295 295 295 294 293 293 292 291 290 290 289 287 286 285 284 284
325 324 324 324 325 325 324 323 322 321 320 317 315 310 302 300 297 298 296 299 300 300 297 297 296 296 296 296 295 295 294 293 292 291 291 290 289 287 287 285 285 284 284
325 325 325 324 323 323 322 321 320 319 318 317 313 305 301 296 296 296 297 300 300 297 296 296 296 296 296 296 295 295 294 293 293 291 290 289 288 287 286 285 284 284 284
323 321 320 320 320 319 319 318 316 316 314 312 307 300 297 295 296 298 299 299 298 297 297 296 296 296 296 295 295 295 294 293 292 291 290 289 288 287 286 285 284 284 284
315 315 316 316 316 315 315 314 313 311 307 303 299 299 296 296 297 300 299 298 297 296 297 296 296 295 295 294 294 294 294 294 292 291 290 288 287 286 286 284 284 284 284
314 314 314 314 313 313 311 309 308 304 302 300 298 298 296 296 298 299 298 297 298 295 296 295 295 294 294 294 294 294 293 293 292 290 289 287 287 286 285 284 284 284 284
312 312 311 310 310 309 309 307 305 303 302 300 299 297 296 298 297 298 297 297 296 294 294 293 293 293 293 294 293 293 292 292 292 290 287 286 286 285 284 283 283 283 283
310 309 308 306 305 304 303 302 302 300 300 299 297 297 299 298 297 297 297 293 292 292 292 292 292 292 292 292 293 292 292 291 290 289 286 285 284 283 282 282 283 283 284
306 304 303 302 302 301 300 300 299 299 299 298 298 297 297 297 296 293 291 290 290 291 292 292 291 291 290 291 292 292 291 292 290 287 286 286 284 283 282 281 283 283 284
301 300 300 300 300 300 299 299 299 299 298 297 294 293 291 291 290 289 289 289 290 291 291 291 291 291 290 291 292 292 292 292 290 288 287 286 285 284 284 283 283 283 283
299 299 299 299 297 296 295 293 292 292 291 291 291 291 292 292 291 290 290 290 290 290 290 290 291 291 291 290 291 291 291 291 290 288 287 286 286 285 284 284 284 283 283
298 295 293 292 291 290 290 290 292 292 291 291 290 290 290 289 288 287 285 284 284 284 285 287 288 289 290 290 290 290 291 290 290 288 287 287 287 286 285 284 283 283 283
292 291 291 290 290 290 289 289 288 286 285 285 286 286 286 285 284 283 281 281 281 281 282 282 281 283 287 288 288 289 290 290 289 289 288 287 287 286 285 284 284 283 283
290 290 290 289 288 286 286 285 284 283 283 282 282 281 281 281 281 279 279 279 279 280 280 281 283 284 284 285 288 288 289 289 288 289 288 287 287 286 285 284 284 283 283
289 288 287 286 285 284 283 283 283 282 281 281 280 279 279 279 278 278 278 278 279 279 280 282 283 284 285 286 285 287 288 288 288 288 288 288 287 285 285 284 284 283 283
287 286 285 284 283 282 282 281 282 281 280 280 279 278 278 278 278 278 278 278 278 278 279 280 280 280 282 283 285 287 287 288 287 287 287 288 286 285 285 284 284 283 283
285 285 283 282 282 281 280 280 280 279 279 279 278 278 278 278 277 277 277 277 277 277 277 277 277 277 278 279 281 284 287 287 287 287 286 287 286 285 285 284 284 284 283
283 283 282 281 281 280 280 279 278 278 278 277 277 276 276 277 276 275 275 275 274 275 275 275 275 275 275 276 278 282 284 286 286 286 286 286 287 285 285 285 284 284 283
282 281 281 280 280 279 279 278 277 277 277 276 276 275 275 276 274 274 273 273 273 272 272 273 273 273 274 275 276 278 283 285 286 286 285 285 286 285 285 285 284 284 283
280 280 280 279 279 278 278 277 277 276 275 275 274 273 275 274 272 272 272 272 271 270 270 271 271 272 273 273 276 278 282 286 287 286 285 285 285 285 285 284 284 283 283
279 279 279 278 277 277 277 276 276 275 274 274 273 273 274 272 271 271 270 270 269 269 269 270 271 271 272 274 275 277 279 283 285 286 285 285 285 285 284 284 284 283 283
278 278 277 277 276 276 276 275 275 274 274 273 272 272 271 270 270 270 269 269 269 270 271 272 273 274 274 275 275 276 277 279 283 284 285 285 285 285 284 284 284 283 282
277 277 276 276 275 275 274 274 274 273 273 272 271 270 269 270 269 269 269 269 270 271 271 272 273 273 274 275 275 276 277 278 280 284 284 284 284 285 284 284 284 283 282
276 275 275 275 274 274 273 273 272 272 271 271 269 269 269 269 269 269 268 269 270 270 271 272 272 273 274 274 275 276 276 278 279 282 284 284 284 284 283 284 284 283 283
274 274 273 273 272 272 272 272 271 270 270 270 269 268 268 268 269 269 269 269 269 270 271 271 272 272 273 274 275 275 276 278 279 280 282 283 283 283 283 283 284 283 283

GFSGL_850_thetae_036.txt.gz
Theta_e
332 332 331 330 329 327 326 328 326 326 325 324 322 320 320 318 315 311 309 308 308 303 303 302 302 301 302 301 301 299 298 297 297 296 296 296 295 295 294 294 293 292 291
334 333 331 331 331 330 328 328 328 326 323 323 321 320 318 316 315 310 307 307 303 302 302 302 300 301 301 301 300 299 297 297 297 296 296 296 295 295 294 293 292 292 291
333 333 331 330 330 327 328 327 325 323 320 319 318 316 317 315 312 307 306 305 302 301 301 300 301 300 300 300 299 298 297 297 297 297 297 296 295 295 294 293 292 291 290
332 332 331 332 329 328 325 324 322 321 320 319 317 315 313 311 308 306 305 302 300 299 300 300 300 300 300 299 299 298 298 297 297 297 297 296 296 295 294 293 292 291 290
331 329 329 328 327 324 322 321 318 318 317 316 315 313 311 309 307 305 302 301 300 299 299 298 299 299 299 299 298 298 297 297 297 297 297 297 296 295 294 293 292 291 289
327 326 326 323 320 318 316 315 314 314 313 314 312 311 310 308 305 301 301 299 299 298 298 297 297 298 298 297 297 297 297 296 296 296 296 296 296 295 295 293 292 290 289
321 320 318 316 316 315 314 313 312 311 309 307 306 304 303 301 300 299 298 298 297 297 297 297 297 296 296 296 296 296 295 295 295 295 295 295 295 294 295 293 292 290 289
315 314 313 312 311 310 308 309 309 306 304 302 301 300 298 298 297 298 298 297 297 297 297 295 295 295 294 294 294 294 294 293 293 293 293 294 295 294 293 293 291 290 288
311 310 309 309 308 307 306 305 304 303 302 301 300 299 299 299 298 297 297 297 296 295 293 293 292 292 293 293 293 293 292 292 292 292 291 291 293 294 293 292 291 289 287
309 308 307 306 305 305 303 303 302 301 300 299 299 299 298 297 297 296 295 294 293 291 290 290 288 288 287 288 289 290 290 289 290 290 291 291 291 293 292 292 291 288 286
307 306 306 305 305 303 302 301 300 299 299 298 296 296 296 295 295 294 293 292 290 288 286 285 284 283 283 282 281 281 281 282 281 282 285 288 290 291 292 292 291 290 288
306 305 304 303 301 300 298 297 298 297 296 295 295 295 295 294 292 292 291 288 286 285 283 283 283 282 281 281 281 284 285 285 286 285 284 286 287 289 291 290 290 289 288
303 302 300 298 297 297 296 296 295 295 295 294 293 291 291 290 289 288 286 285 283 282 282 281 281 280 280 282 282 282 283 284 285 287 286 286 285 288 290 289 288 287 288
299 297 296 295 294 293 292 292 293 292 290 289 287 287 287 287 285 284 283 282 282 281 280 280 280 280 282 281 280 280 281 281 282 284 284 286 286 287 288 290 289 288 287
297 295 294 293 291 291 290 289 289 288 286 285 284 284 283 283 282 281 281 280 280 279 279 279 280 280 280 279 279 278 279 279 279 280 282 284 285 287 287 289 289 288 287
293 293 291 290 289 289 289 288 287 286 284 283 283 282 282 281 280 280 279 279 279 278 279 279 279 278 278 278 277 277 277 277 277 278 279 280 283 285 287 289 289 288 288
292 291 289 288 288 287 286 286 286 286 284 283 283 282 281 280 280 279 278 278 278 278 278 278 277 277 276 276 276 275 275 275 276 276 277 279 283 286 287 287 288 289 288
289 287 287 286 286 285 284 284 283 284 283 282 282 281 280 279 279 277 277 277 277 277 276 276 276 275 275 275 274 274 274 274 275 276 277 278 282 285 286 287 288 288 287
286 286 286 285 284 283 282 282 281 281 281 281 280 280 279 279 278 276 277 276 276 275 275 274 274 273 273 273 273 272 273 273 273 275 276 278 280 285 286 287 288 288 287
285 284 285 284 282 281 281 281 280 280 280 279 279 279 278 278 277 276 276 275 274 274 274 273 272 272 271 271 271 271 272 272 274 274 275 276 279 283 286 286 288 287 287
289 286 282 281 280 280 280 279 279 278 278 278 277 277 276 276 275 274 274 274 273 273 272 271 271 271 270 270 269 270 270 272 273 273 274 276 278 281 285 287 286 287 287
282 281 280 280 279 279 279 278 277 277 276 276 276 275 275 274 274 273 273 272 272 271 270 270 270 269 269 269 269 269 271 271 272 272 274 275 278 280 283 285 286 286 286
281 280 279 278 278 278 277 276 276 275 275 275 274 273 273 273 272 272 271 271 270 270 269 269 269 270 270 269 268 269 270 271 270 271 273 275 277 279 282 284 285 286 286
278 278 277 277 276 276 275 275 274 274 273 273 273 272 272 271 271 270 270 269 269 269 268 269 269 269 268 269 270 270 269 269 271 273 273 275 277 279 282 284 285 285 286
277 276 276 275 274 274 273 273 273 272 272 272 271 271 270 270 269 269 269 268 268 268 268 268 269 269 269 269 269 268 268 270 272 272 273 275 277 278 281 283 285 285 285
275 274 274 273 273 272 272 271 271 271 270 270 269 269 268 268 268 267 267 267 266 267 267 269 269 269 269 268 267 268 270 270 271 272 273 275 276 278 280 283 284 285 285

GFSGL_850_thetae_042.txt.gz
Theta_e
325 325 324 325 325 325 326 326 326 324 325 322 323 321 322 320 322 321 321 319 318 318 315 311 308 307 308 306 305 304 303 302 301 301 300 300 299 299 297 297 296 296 295
326 326 326 326 326 327 326 326 325 325 324 315 318 321 322 323 323 320 320 319 318 316 311 308 307 307 305 304 304 304 301 301 302 300 300 299 299 298 297 296 296 296 296
327 327 327 325 322 327 326 324 324 326 324 318 319 325 323 321 320 320 318 317 314 312 308 307 306 305 304 303 302 300 300 300 300 299 299 299 298 298 297 297 297 297 297
326 327 326 324 321 323 327 327 324 322 325 324 324 323 321 319 318 317 315 314 312 308 306 305 304 303 303 301 299 299 299 298 298 298 297 297 297 296 296 296 296 295 295
327 327 327 326 324 327 328 327 325 324 324 324 322 320 317 315 314 314 313 311 310 306 305 303 302 301 300 300 297 297 297 297 297 296 296 296 296 295 294 293 293 293 293
329 329 329 329 329 327 326 327 325 324 322 319 318 316 314 314 313 312 309 309 307 304 302 301 300 299 299 297 296 296 296 295 295 294 294 294 294 293 292 292 292 292 292
330 331 329 328 326 327 326 323 321 319 317 316 314 312 312 312 311 309 308 305 302 301 300 299 299 298 296 295 295 294 293 293 293 293 293 292 291 290 288 288 289 290 290
329 328 327 326 324 323 322 320 319 315 311 311 311 311 311 309 308 305 302 300 299 299 298 297 296 295 294 294 293 291 290 289 286 285 284 284 283 282 283 284 284 285 283
327 325 324 323 321 318 316 314 312 312 311 309 307 306 305 304 301 299 298 298 298 297 297 295 294 293 293 291 289 286 284 284 283 283 283 282 282 283 284 285 286 285 285
324 323 321 319 317 314 313 311 310 309 306 304 302 300 299 299 297 297 297 297 297 295 294 294 294 292 288 284 284 284 283 283 283 282 281 281 280 280 281 283 284 284 285
321 319 316 313 312 310 309 308 307 304 303 301 300 299 299 298 298 297 296 296 295 294 293 292 287 284 283 283 283 282 282 281 281 280 280 280 280 280 279 280 281 282 284
315 313 311 309 308 307 306 304 303 302 301 300 298 298 297 297 297 296 295 294 293 292 289 285 283 282 282 282 281 281 281 280 279 279 280 280 279 279 279 279 280 281 282
311 309 308 307 306 305 304 303 301 300 300 299 298 298 296 296 295 293 293 292 290 287 284 282 282 281 281 280 280 280 279 279 279 279 279 278 278 278 279 280 281 281 282
308 307 306 305 304 302 301 299 298 298 297 295 295 294 294 293 293 291 290 288 285 282 281 281 280 280 280 279 279 278 278 277 277 277 277 277 278 278 279 279 280 281 282
306 305 304 302 300 298 298 298 297 296 295 295 294 293 292 290 289 288 285 282 281 281 280 280 279 279 279 278 278 277 277 276 276 276 276 277 277 277 278 279 279 281 281
305 302 300 299 298 296 295 294 293 293 292 290 289 288 287 285 283 281 281 281 280 280 279 279 278 278 277 277 276 276 275 275 275 275 275 275 276 276 277 278 279 280 281
301 297 295 294 293 293 291 290 289 286 286 285 284 283 282 282 282 281 280 279 278 278 278 278 277 276 276 275 275 274 274 274 273 273 274 275 275 275 276 277 278 279 282
297 294 293 291 290 289 288 287 286 285 285 284 284 284 283 281 281 280 280 279 278 277 277 276 276 275 275 274 274 273 273 273 273 273 273 274 274 274 275 276 277 278 280
293 290 289 288 287 286 286 286 286 285 286 284 282 281 281 280 280 279 279 278 276 276 275 275 274 274 273 273 272 272 272 272 272 272 272 273 273 274 275 276 277 278 279
290 289 287 287 288 287 285 286 285 283 282 281 281 280 279 279 278 277 277 276 275 274 274 273 273 272 271 271 271 271 271 271 271 271 271 272 273 273 273 275 276 277 279
286 286 287 287 286 285 284 283 282 281 280 279 279 278 277 277 276 276 275 274 273 273 272 271 271 270 270 270 270 270 270 270 270 270 270 271 272 272 273 274 275 276 278
286 286 285 284 283 282 281 281 280 279 278 277 276 276 276 275 274 273 273 272 272 271 271 270 269 269 269 269 269 269 269 269 269 269 269 270 270 271 272 274 275 276 277
284 283 282 281 280 280 279 277 276 276 275 275 274 274 273 273 272 272 271 271 270 269 269 269 268 268 268 268 268 268 268 268 268 268 268 269 270 271 272 273 274 275 277
281 280 279 278 277 276 275 275 274 273 273 273 272 272 271 271 270 270 269 268 268 268 267 267 267 267 267 268 268 268 267 267 268 268 268 268 270 271 272 273 273 275 277
278 277 276 275 274 273 273 272 272 271 271 271 270 269 269 268 268 267 267 266 266 266 266 266 267 267 267 267 267 267 268 268 268 268 268 269 270 271 272 272 273 275 277
274 274 273 272 272 271 271 271 270 270 269 269 268 267 267 266 266 266 265 265 265 265 265 266 266 267 267 267 267 268 268 268 268 268 268 269 270 271 272 272 274 275 277

GFSGL_850_thetae_045.txt.gz
Theta_e
317 316 316 316 317 317 318 319 319 320 322 323 324 324 321 321 322 323 322 321 322 322 321 317 316 317 314 309 309 308 308 304 303 303 302 301 301 301 301 300 299 298 297
321 320 319 318 318 320 321 322 323 323 323 320 321 323 316 317 318 321 322 321 321 321 319 317 317 313 311 308 307 307 305 304 303 300 300 300 299 299 299 299 298 298 297
324 323 322 323 323 324 324 321 323 324 324 324 320 317 319 317 318 320 321 322 321 318 317 315 312 310 308 307 306 304 303 303 300 299 299 298 298 297 297 297 296 296 295
325 325 324 324 325 325 325 324 325 325 325 321 324 317 318 317 318 322 320 320 318 315 313 312 309 306 306 305 303 302 302 299 299 298 298 297 297 297 296 295 294 294 293
325 325 325 326 326 326 326 326 324 326 327 326 324 323 322 322 322 320 319 317 315 313 311 310 307 305 303 302 302 301 300 298 297 296 296 295 295 294 293 293 292 292 291
326 326 325 326 327 327 326 324 323 325 326 326 323 322 322 321 319 317 315 313 312 311 310 307 304 302 301 300 300 299 296 296 295 294 294 293 291 291 290 289 286 284 283
325 327 326 326 326 326 326 324 323 324 325 325 323 322 320 318 315 314 313 312 310 309 306 303 302 301 300 299 297 296 295 294 294 292 290 289 286 284 283 283 283 283 283
327 328 329 327 327 327 325 325 326 324 323 322 320 317 315 314 313 313 311 309 307 304 302 301 300 299 298 296 294 294 293 292 290 286 283 283 283 282 281 281 281 282 282
328 328 328 328 326 325 325 325 323 322 319 318 315 313 311 311 310 309 307 304 302 301 300 299 298 296 294 293 293 292 289 285 284 284 284 283 282 282 281 280 280 282 282
329 329 327 325 325 325 324 322 320 318 315 311 309 309 308 307 305 303 301 300 299 299 298 297 296 293 292 292 289 285 283 284 284 283 283 282 281 280 280 279 279 279 279
327 326 326 324 323 322 320 317 314 312 310 308 305 303 302 302 300 299 298 297 296 296 294 293 293 293 290 285 283 283 282 282 282 281 281 280 280 280 279 279 278 278 279
324 323 321 319 317 315 313 312 309 308 305 303 301 300 298 298 298 297 296 296 294 294 293 292 290 286 283 282 282 281 281 280 280 279 279 279 279 279 279 278 278 278 279
319 316 314 311 309 307 306 305 303 302 301 300 299 298 297 296 296 295 295 294 293 292 291 287 284 282 282 281 280 280 280 279 279 279 279 278 278 278 278 278 278 279 279
313 310 308 306 305 303 302 301 301 300 300 299 298 297 295 294 294 294 293 292 291 289 285 282 281 281 280 280 279 279 278 278 278 277 277 277 277 277 277 277 278 279 279
309 307 305 304 303 301 300 299 299 298 298 298 297 296 295 294 293 291 289 288 285 282 281 280 280 279 279 279 278 278 277 277 276 276 276 276 276 276 276 277 277 278 278
307 305 304 303 301 300 299 297 296 295 294 293 293 292 292 290 289 287 284 282 281 280 279 279 278 278 277 277 276 276 276 275 275 274 274 274 274 275 275 276 276 277 278
306 304 302 299 298 297 296 295 295 291 290 289 288 287 286 283 282 281 281 280 279 279 278 278 277 276 276 275 275 274 274 274 273 273 273 273 273 274 274 275 275 276 277
302 300 298 296 293 291 289 288 287 287 286 285 284 284 285 285 284 282 281 281 280 278 277 276 276 276 275 274 273 273 272 272 272 272 272 272 272 273 273 274 274 275 276
293 291 289 289 289 289 289 287 286 286 287 286 285 283 282 281 280 280 279 279 278 277 276 276 275 274 273 272 272 271 271 271 271 271 271 271 272 272 272 273 273 275 275
292 291 290 289 288 287 287 287 286 285 284 282 281 280 279 279 278 278 277 276 276 275 274 273 272 272 271 271 270 270 270 270 271 271 271 271 271 271 271 272 272 273 275
289 288 287 287 286 285 285 284 283 281 280 280 279 278 278 277 276 276 275 274 273 273 272 272 271 270 270 269 269 269 269 269 269 269 269 270 270 271 271 271 272 273 274
286 286 285 284 283 282 281 281 280 279 278 277 276 276 275 275 274 273 273 272 271 271 270 270 269 269 268 268 268 268 268 269 269 269 269 269 269 270 270 271 271 272 274
284 283 282 282 281 280 279 278 277 276 275 275 274 273 273 272 272 271 270 270 269 268 268 268 267 267 267 267 267 267 267 268 268 268 268 268 269 269 269 270 271 272 273
281 281 280 279 278 277 276 275 274 273 273 272 272 271 271 270 269 269 268 267 267 266 266 266 266 266 266 266 266 267 267 267 267 268 267 268 268 269 269 270 271 272 272
278 277 276 275 274 273 273 272 272 271 270 270 269 269 268 268 267 267 266 265 265 265 264 264 264 265 265 266 266 266 267 267 267 267 267 268 268 268 269 269 270 272 273
274 273 273 272 272 271 270 270 269 269 268 268 267 267 266 266 265 265 265 264 264 264 264 265 265 265 266 266 266 266 267 267 268 268 268 268 268 269 269 269 271 272 273

GFSGL_850_thetae_051.txt.gz
Theta_e
316 315 316 317 317 317 317 317 317 317 317 316 316 317 317 316 315 315 315 315 320 320 317 319 318 318 318 321 320 320 317 313 313 312 309 308 307 306 305 304 303 300 299
322 317 315 315 316 316 316 315 316 316 316 318 317 316 315 315 315 315 314 318 320 319 317 319 319 318 319 320 319 317 315 313 312 309 307 306 306 304 303 302 300 298 297
324 322 320 317 316 316 315 315 315 315 315 315 318 318 318 316 315 316 319 319 321 317 318 319 318 318 320 318 316 314 313 310 309 307 306 304 303 302 301 299 298 297 295
324 324 323 322 322 320 318 317 316 316 316 316 317 319 318 319 320 320 321 322 322 319 318 318 320 319 318 316 314 312 309 308 307 305 303 302 300 300 299 297 294 291 289
324 324 324 324 323 322 320 319 318 318 318 316 316 317 318 318 320 320 322 322 323 322 320 318 319 317 315 312 311 310 308 306 304 302 301 299 298 297 295 292 290 286 286
322 322 323 323 323 323 323 322 321 320 319 318 319 319 320 321 322 322 322 322 322 318 318 319 317 314 311 310 310 307 305 303 302 301 299 297 296 294 291 288 285 285 285
320 321 322 322 322 323 323 323 323 323 322 322 322 322 323 323 323 323 323 323 321 319 318 315 313 311 310 308 305 303 301 300 299 298 297 296 292 290 285 285 284 283 284
321 320 321 322 322 323 323 324 323 323 323 323 324 324 324 324 322 321 321 319 318 316 313 312 311 309 307 305 303 301 299 298 297 296 293 291 287 284 284 283 283 282 282
321 321 322 323 323 323 324 324 324 323 324 325 323 323 323 322 321 320 319 316 314 312 310 309 307 306 305 301 299 298 296 295 294 292 288 285 284 284 283 282 282 281 281
321 322 322 323 323 324 325 324 324 324 324 323 322 321 320 318 316 315 314 313 312 310 308 306 303 302 299 297 296 295 294 293 290 285 283 283 282 281 282 281 281 280 280
322 324 324 324 325 325 324 322 322 321 320 320 318 316 314 312 311 309 308 308 308 308 305 301 299 297 296 295 294 293 291 287 283 282 282 282 281 281 281 280 280 279 279
324 326 325 325 324 324 322 321 320 320 318 314 311 310 308 307 306 305 304 303 302 301 299 297 296 295 294 293 291 289 284 282 282 282 281 281 280 280 280 279 279 279 278
324 323 324 323 321 321 320 319 318 313 310 308 307 307 306 303 302 300 299 298 297 297 296 294 293 293 292 289 286 282 282 282 281 281 280 280 279 279 279 280 279 278 277
323 323 321 320 319 316 313 312 310 309 308 307 305 302 301 300 299 298 297 296 296 295 294 292 291 288 284 281 282 283 282 280 279 279 278 278 278 279 278 277 276 276 276
320 319 317 315 313 311 308 306 305 304 302 302 301 299 299 297 296 296 295 294 293 292 290 288 285 282 281 281 280 280 279 279 278 277 279 279 278 277 276 275 275 274 274
318 313 310 309 307 305 304 302 300 300 299 298 298 297 296 295 294 293 292 291 290 289 285 282 281 281 281 281 280 279 279 278 278 277 277 276 275 274 273 273 273 272 272
308 305 304 304 303 302 300 298 298 293 294 293 292 291 290 290 289 289 288 286 283 283 284 284 283 281 280 278 277 277 276 276 275 275 274 273 272 271 272 271 271 270 271
305 304 300 297 297 295 294 294 293 292 292 290 288 288 288 287 286 285 284 284 283 282 281 280 278 277 276 276 275 274 274 273 273 272 271 271 270 270 269 269 269 269 270
297 296 295 293 292 292 292 291 290 289 288 287 285 284 283 283 282 282 281 280 279 278 277 276 275 275 274 273 273 272 272 271 270 270 270 269 268 268 268 268 268 268 268
293 293 292 291 290 290 289 288 287 286 285 283 282 281 280 280 279 279 278 277 276 275 274 273 273 272 272 271 271 270 269 269 267 267 266 266 267 266 266 267 267 268 268
289 289 289 288 287 286 286 285 283 282 281 280 280 278 278 277 277 276 275 274 273 273 272 271 271 270 270 269 268 267 267 267 267 266 266 265 265 265 265 266 266 267 267
287 286 286 286 284 284 283 282 281 280 279 278 277 276 275 275 274 273 272 272 271 270 270 269 269 268 267 267 267 266 266 266 266 266 265 264 264 264 264 265 265 266 267
285 284 283 282 281 280 280 279 278 277 276 275 274 273 272 272 271 270 270 269 268 268 268 267 267 267 266 266 266 266 265 266 265 265 264 263 264 263 264 264 265 265 266
281 281 280 279 278 276 275 274 274 273 273 272 271 271 270 269 269 268 268 268 267 267 267 267 266 266 266 266 266 265 265 265 265 264 265 265 265 265 264 264 265 265 265
275 275 274 274 273 273 272 272 271 270 270 269 269 269 268 268 268 267 267 267 267 267 267 266 266 266 266 266 265 265 265 265 265 265 265 265 266 266 266 266 266 265 265
273 272 272 271 271 270 270 270 269 269 269 268 268 268 268 267 267 267 267 267 267 267 266 266 266 265 265 266 266 266 266 266 265 265 266 266 266 266 266 266 267 266 266

GFSGL_850_thetae_054.txt.gz
Theta_e
322 322 322 322 322 322 322 321 321 318 317 317 316 316 317 316 315 317 318 318 318 317 319 315 315 320 319 318 317 316 317 316 316 313 313 312 313 311 308 308 307 306 305
322 321 321 322 322 321 320 320 320 319 319 318 317 317 317 318 318 319 319 318 320 320 316 315 318 320 317 318 317 317 318 319 317 313 312 311 310 308 307 306 305 304 301
323 322 320 319 319 318 317 317 319 319 320 320 319 319 318 318 319 317 317 317 319 317 315 316 318 320 317 319 318 317 318 317 315 311 311 310 307 306 306 304 303 301 299
324 323 322 320 319 317 316 317 317 316 317 317 317 318 318 317 317 317 317 317 318 315 317 321 321 320 317 318 319 318 317 316 312 310 309 307 306 304 303 301 299 298 296
324 323 324 324 323 320 319 317 316 316 316 316 317 317 318 319 318 320 320 319 319 320 320 322 323 320 318 319 318 317 315 311 309 308 306 306 304 302 300 298 295 294 291
324 324 323 323 323 323 323 321 320 319 318 318 318 319 319 319 317 317 318 317 317 320 323 323 322 321 321 318 318 314 311 310 309 307 305 303 301 299 297 293 292 289 289
323 323 323 323 323 323 323 322 322 321 321 321 321 320 321 321 320 318 317 319 321 323 323 322 321 320 318 317 312 309 308 307 305 304 302 300 298 294 292 290 288 288 288
322 323 323 322 322 322 322 322 321 321 321 322 321 321 322 321 321 322 323 322 323 322 319 319 318 317 314 311 309 308 305 303 301 299 298 296 295 292 288 285 285 285 285
323 321 321 322 323 323 323 323 322 322 322 322 322 323 323 323 323 323 323 322 321 319 317 316 313 311 309 308 306 305 302 299 298 297 295 293 289 285 284 283 283 284 285
322 324 324 323 324 324 324 324 323 323 322 324 324 323 322 322 321 321 321 320 317 315 312 310 307 306 306 303 300 299 297 296 295 294 291 285 284 283 283 282 281 282 283
321 321 323 324 324 324 323 323 323 323 323 323 322 321 321 318 317 315 313 313 312 310 308 306 303 301 299 298 296 295 294 293 291 285 283 282 282 282 281 281 281 280 281
319 319 320 321 321 322 322 323 323 323 322 321 319 316 313 311 309 307 306 306 307 306 304 301 299 296 295 294 294 293 292 287 283 282 282 282 281 281 281 282 279 279 279
320 321 321 321 321 323 323 322 321 320 318 316 312 310 307 304 304 302 302 302 301 300 299 296 295 294 293 293 292 286 282 281 282 282 282 282 281 281 280 278 279 280 280
321 321 322 323 321 320 319 318 316 315 312 309 307 306 304 301 301 300 299 297 296 295 295 294 293 292 289 286 283 281 282 282 282 282 281 280 279 278 278 278 279 278 277
319 317 317 318 317 313 311 309 308 306 305 305 303 302 301 299 297 296 296 295 294 293 292 290 287 285 283 281 281 280 280 281 280 278 277 277 276 276 276 275 275 275 275
312 309 308 308 308 306 305 302 300 300 299 299 298 299 297 297 294 293 292 291 290 289 288 286 284 282 282 281 280 278 278 277 276 277 276 274 274 274 274 274 273 274 275
305 304 302 302 301 299 297 297 295 292 293 293 292 292 291 289 288 288 289 289 288 286 284 283 281 280 279 278 277 276 275 274 275 273 272 272 272 272 272 273 273 274 274
296 297 299 296 295 295 293 292 291 291 289 287 287 288 288 287 287 286 285 284 282 281 280 279 278 276 276 275 274 273 273 272 272 271 271 271 271 271 271 272 273 273 273
296 294 293 292 291 290 290 289 288 287 286 284 283 283 282 282 282 281 281 280 278 277 277 276 275 274 273 273 272 271 270 270 269 269 270 270 270 270 270 270 271 270 271
293 292 291 290 290 289 288 287 286 285 284 282 281 280 279 279 279 278 278 276 275 274 274 273 272 271 271 270 270 269 269 269 269 269 268 268 268 268 268 269 269 270 270
289 289 289 288 287 286 286 285 283 282 281 280 279 279 278 277 275 274 273 273 272 271 271 271 270 269 269 268 268 268 267 267 267 266 266 267 267 267 267 268 268 268 269
287 287 286 285 284 283 281 279 278 277 276 275 275 277 275 274 273 272 271 271 270 269 268 268 268 267 267 266 266 265 265 265 265 265 265 265 266 266 266 266 267 268 268
283 283 282 281 280 279 277 276 275 274 274 273 273 272 271 271 270 269 269 268 268 268 269 269 269 268 267 267 267 265 264 264 263 263 263 264 264 264 265 265 266 267 267
280 279 278 277 275 274 273 273 273 272 271 271 270 270 269 268 268 268 269 269 269 268 268 268 268 268 267 267 266 265 264 265 265 265 262 262 263 263 264 265 265 266 266
275 274 274 272 272 271 271 270 270 270 270 269 269 268 268 267 267 267 267 268 268 268 267 267 267 267 267 266 266 266 266 266 266 266 266 265 263 262 263 264 265 265 266
273 272 272 271 271 270 269 269 269 269 269 268 268 267 267 267 267 267 267 267 267 267 267 267 267 267 267 267 267 267 266 266 266 266 266 266 266 263 263 264 264 264 265

GFSGL_850_thetae_057.txt.gz
Theta_e
325 324 322 323 323 323 323 321 322 322 320 320 319 318 318 318 319 319 318 318 319 318 318 319 320 320 319 320 319 319 319 317 317 316 316 316 315 315 316 314 312 312 309
324 325 324 324 324 324 323 324 323 323 322 321 320 320 319 319 319 320 320 320 320 320 320 320 320 319 320 320 318 319 317 316 317 317 315 316 315 314 312 312 310 308 308
325 325 324 324 324 324 323 324 324 324 323 322 322 322 320 320 320 320 320 320 320 320 320 321 321 320 320 319 318 319 318 315 316 318 316 314 313 311 309 309 307 307 306
327 325 325 323 321 321 322 322 323 324 324 323 323 322 321 321 321 321 320 321 321 320 320 321 319 322 319 318 319 321 319 318 318 318 314 313 310 309 308 306 306 305 304
328 327 326 325 323 324 324 324 323 323 322 322 322 322 322 321 321 321 320 319 320 320 319 320 320 320 319 321 321 322 318 318 318 316 313 309 308 306 307 306 305 303 300
329 328 327 326 326 325 325 324 323 323 323 322 322 322 322 321 321 320 320 320 320 319 320 321 320 320 319 321 322 320 318 318 317 315 310 308 308 306 305 303 300 298 295
329 328 328 327 326 326 325 325 324 323 323 323 322 322 321 321 321 320 320 320 320 321 321 320 319 318 322 320 319 319 317 316 311 309 307 306 306 303 301 298 296 295 292
328 328 328 327 327 326 326 325 325 324 323 323 322 322 322 322 321 321 321 320 320 320 319 319 320 321 320 318 316 314 310 309 306 305 305 301 300 298 297 295 292 289 289
326 328 327 327 326 326 326 325 325 324 324 324 324 324 323 322 322 321 321 321 321 321 321 320 318 318 317 317 313 309 306 305 302 301 300 297 296 295 292 288 286 285 286
322 326 327 327 326 325 325 325 324 324 323 323 323 323 322 322 321 322 322 321 321 321 319 317 314 312 311 309 307 305 304 301 298 297 295 294 292 287 286 285 283 283 284
320 322 326 327 326 326 325 325 325 324 324 323 322 323 323 322 322 321 320 318 317 315 312 308 304 302 302 302 300 300 297 296 294 293 291 288 286 284 283 283 283 282 282
322 322 324 326 327 326 326 325 325 325 324 323 320 320 319 317 319 313 310 309 309 308 305 301 299 298 297 296 295 295 294 293 291 288 285 283 282 283 282 282 282 282 281
320 321 322 324 325 325 325 325 324 322 322 320 316 315 314 310 308 309 304 303 303 302 300 298 296 294 294 294 293 293 292 290 287 284 284 284 284 283 283 282 280 279 279
316 317 318 320 321 321 320 320 319 318 315 313 312 309 307 302 302 303 301 301 299 299 296 294 293 293 293 291 290 289 288 286 284 284 283 282 281 280 279 279 278 278 278
309 310 311 311 311 310 310 308 309 307 308 307 303 301 300 296 295 295 296 295 294 293 293 292 291 289 287 285 284 284 282 281 281 279 279 279 278 277 277 277 276 276 276
301 299 300 303 300 298 298 297 297 299 300 299 297 297 294 293 291 292 292 292 291 289 289 287 286 285 283 282 281 280 279 278 278 277 276 275 275 275 275 275 275 275 276
295 294 293 296 293 290 292 292 289 289 290 291 292 292 291 289 289 288 289 288 288 287 285 283 282 281 280 279 278 277 277 275 275 274 274 274 274 274 274 274 275 275 275
291 294 295 294 293 294 289 290 291 291 289 286 286 287 287 287 286 286 284 285 284 282 281 280 279 278 277 277 276 275 274 273 273 273 272 272 272 272 272 273 273 273 273
290 291 291 291 291 291 289 290 288 287 285 283 282 282 282 282 282 282 281 281 279 278 277 277 276 275 274 274 273 273 272 272 271 271 271 271 271 270 271 271 271 271 271
289 289 289 289 288 288 287 287 286 284 283 281 280 280 279 279 280 279 278 277 276 275 275 274 273 273 272 272 271 271 271 271 270 270 270 269 269 269 269 269 270 270 270
285 285 285 285 284 283 283 282 281 281 280 279 278 278 277 277 276 275 274 273 273 272 272 272 272 271 270 270 269 269 268 268 268 268 268 268 268 268 268 268 268 269 269
284 283 282 281 280 280 279 279 278 277 277 276 275 275 275 275 274 273 272 271 270 270 269 269 269 269 268 267 267 267 267 266 267 266 266 266 266 267 267 267 267 268 268
281 279 278 278 277 277 276 276 276 276 275 275 274 273 272 272 271 271 270 269 269 268 268 268 267 267 267 267 267 266 265 265 265 264 264 264 265 265 265 265 266 267 267
276 276 276 275 275 275 275 274 273 273 273 273 272 271 271 270 270 269 268 268 268 267 268 268 268 268 268 268 268 268 266 266 267 267 266 264 263 264 264 265 265 266 266
274 274 274 273 273 273 273 272 272 272 271 271 271 270 270 269 269 268 267 267 269 269 268 268 268 268 268 268 268 267 267 267 267 267 266 266 264 263 263 264 265 266 266
272 271 271 271 271 271 271 271 270 270 270 269 269 268 268 268 267 267 266 266 268 268 267 267 268 268 267 267 266 267 267 267 267 267 266 266 266 264 263 264 264 265 265

GFSGL_850_thetae_060.txt.gz
Theta_e
324 322 323 324 324 323 323 322 322 321 321 320 318 318 318 320 321 320 320 319 318 318 318 319 319 318 318 318 319 319 319 318 320 320 318 317 316 315 315 316 315 315 316
325 325 322 320 324 323 323 323 322 321 321 320 319 318 318 317 317 317 319 319 319 319 320 320 319 319 320 320 321 320 319 318 320 319 318 317 316 317 317 316 315 314 314
326 326 325 323 321 321 322 323 322 322 322 322 320 320 320 319 318 317 318 319 319 319 319 320 320 320 320 320 320 319 319 319 319 319 319 318 315 317 317 316 314 313 312
327 326 326 325 323 319 320 322 323 323 323 323 323 323 322 321 322 321 321 321 320 320 320 320 320 320 320 320 320 321 321 320 317 319 319 318 315 316 316 314 312 311 309
329 327 326 326 326 325 325 323 323 323 324 325 325 324 324 323 322 321 321 321 321 321 321 321 321 321 321 321 320 320 320 320 319 319 317 317 316 316 316 313 310 309 306
331 330 328 327 327 327 327 327 327 326 325 326 326 325 325 324 323 323 323 322 322 322 322 322 322 321 321 320 320 321 320 319 320 320 318 317 317 316 312 308 307 304 303
330 330 330 329 328 327 327 327 326 326 327 326 325 326 325 325 324 324 323 323 322 322 322 321 321 321 320 319 321 321 321 320 319 317 314 313 311 307 306 304 303 301 299
322 328 330 330 330 329 328 327 326 326 326 326 326 325 324 324 324 323 323 323 322 322 321 321 321 321 321 320 321 321 320 318 315 313 310 307 306 304 303 301 299 296 295
321 320 326 329 330 330 329 328 327 327 327 326 326 325 325 324 324 323 322 322 322 321 320 320 320 321 321 321 320 318 314 311 307 303 301 301 301 300 299 297 295 292 288
321 322 322 321 328 329 329 329 328 327 327 326 325 325 324 324 323 322 323 322 322 321 321 321 321 320 320 318 314 310 308 303 300 297 295 294 294 294 294 293 291 288 286
320 321 322 321 323 328 328 328 328 327 327 326 325 324 323 323 323 323 323 323 322 322 321 318 315 314 310 306 304 302 299 295 294 294 295 294 294 293 291 288 286 285 284
315 317 320 322 322 328 328 328 327 327 326 326 324 323 323 322 322 322 322 320 319 316 314 309 303 301 300 299 297 296 294 292 293 292 291 289 287 285 284 284 284 285 284
312 312 313 317 320 322 326 327 326 325 324 323 322 321 318 312 314 311 310 308 306 306 302 298 298 294 294 294 293 292 292 291 290 289 287 285 285 284 284 284 283 283 282
306 304 306 309 314 317 319 319 321 322 321 318 316 312 308 305 301 299 298 298 299 299 294 291 291 291 291 291 290 290 289 288 286 285 284 283 282 282 281 280 279 279 278
299 297 297 298 299 303 306 308 313 308 308 308 305 299 298 294 294 295 294 292 292 292 291 291 291 290 289 288 287 286 285 284 283 282 281 280 279 279 278 277 277 276 276
295 293 292 290 290 287 291 292 291 296 296 294 294 295 292 292 290 291 292 291 291 290 290 289 286 286 285 283 282 281 280 281 280 279 277 277 276 275 275 274 274 275 275
291 289 291 290 288 287 285 284 285 287 289 289 286 288 287 288 289 288 289 290 288 288 288 285 283 282 281 281 280 279 278 277 276 275 274 274 273 273 273 273 273 273 273
290 288 288 288 290 289 285 283 282 284 284 282 286 286 284 283 283 285 285 286 285 285 284 282 281 280 278 278 277 276 275 274 273 273 272 272 272 271 271 271 271 271 271
288 288 286 287 285 285 285 283 283 282 282 281 281 282 281 282 282 282 283 283 281 280 279 278 277 276 275 275 274 273 272 272 271 271 271 270 270 270 269 269 269 270 270
287 286 285 284 284 285 285 283 282 282 280 279 279 279 280 281 281 279 278 278 277 276 275 274 274 273 273 272 272 271 271 270 270 269 269 269 268 268 268 268 269 269 269
285 285 284 283 282 281 281 280 280 280 279 278 277 277 277 277 276 275 275 274 274 273 273 273 272 272 271 270 270 270 269 269 268 268 268 268 267 267 267 267 267 267 268
281 281 281 280 280 279 279 278 278 277 276 276 275 275 274 274 273 272 272 272 271 271 271 270 270 270 270 270 269 268 267 267 267 267 267 267 267 266 266 266 266 266 267
279 279 278 277 277 277 277 276 276 275 275 274 273 273 272 272 271 271 270 270 270 269 270 269 269 269 269 269 269 268 267 267 268 268 268 268 267 266 266 265 265 265 266
276 275 275 275 275 275 274 274 274 273 273 272 272 271 271 270 270 269 269 269 269 268 269 269 268 268 269 269 268 268 269 268 267 267 267 267 267 267 266 265 265 265 266
274 274 273 273 273 273 272 272 272 272 271 271 270 270 270 269 269 268 268 268 269 268 268 268 268 268 268 268 268 269 268 267 268 267 267 267 267 267 267 265 264 265 265
272 272 272 272 271 271 271 270 270 270 270 269 269 269 268 268 268 267 267 269 268 268 268 268 268 268 268 267 268 267 267 268 268 268 267 267 267 267 266 265 265 265 265

GFSGL_850_thetae_063.txt.gz
Theta_e
321 322 322 322 322 321 322 321 321 321 320 317 315 315 316 316 317 316 316 318 318 319 318 317 317 317 317 318 318 318 318 317 318 318 318 318 318 318 318 318 316 316 316
326 323 321 323 323 323 323 322 321 321 321 321 318 316 316 316 316 317 317 318 319 319 319 318 317 318 317 317 317 318 317 317 318 318 318 318 317 318 319 319 317 316 316
328 326 324 324 321 322 323 323 322 322 322 322 322 320 319 317 316 318 316 317 319 320 320 319 318 318 318 317 318 319 319 319 320 320 320 319 319 317 316 317 318 316 316
329 327 326 325 324 323 321 324 325 323 322 322 322 322 321 321 320 320 317 317 318 318 319 318 317 318 318 318 319 319 319 320 320 320 320 320 320 319 316 317 317 316 315
329 328 328 327 326 325 325 323 321 323 323 322 322 322 321 321 320 319 319 319 319 319 318 318 318 318 319 319 319 320 320 320 321 321 320 320 320 319 318 318 317 316 315
328 329 329 328 327 326 326 326 325 323 321 322 323 322 322 322 322 321 321 320 320 320 320 321 320 321 320 320 320 321 321 321 321 321 321 319 319 319 318 317 315 312 307
321 322 328 328 328 328 327 326 326 326 325 323 323 323 323 323 323 323 323 323 322 322 322 321 321 321 321 321 321 322 322 322 322 321 320 320 318 318 317 311 309 307 306
318 320 321 327 328 328 328 327 327 327 327 327 326 325 325 324 325 325 325 324 323 323 322 321 321 321 321 321 321 321 321 321 321 320 320 317 313 310 307 305 304 301 300
317 318 318 319 321 325 328 329 329 328 327 327 327 327 327 326 325 325 326 325 323 324 323 323 322 322 321 321 320 320 321 320 319 316 312 309 304 302 301 299 298 297 296
313 316 317 317 319 320 321 326 329 329 329 327 327 327 327 327 326 326 326 325 325 324 323 323 323 322 322 321 321 321 317 307 299 300 300 299 299 298 296 296 295 294 293
310 311 313 315 317 318 320 321 327 329 329 328 327 327 327 326 326 326 325 325 324 324 323 322 321 320 320 319 316 307 304 300 298 299 296 295 294 294 295 294 294 293 291
304 307 309 311 314 315 317 320 324 327 328 328 328 327 326 325 325 325 324 324 323 322 320 315 312 308 306 303 301 298 296 294 293 294 293 293 291 290 289 288 287 287 286
298 298 300 304 308 312 311 315 318 321 321 323 323 321 319 316 315 317 321 320 316 313 306 301 296 295 293 295 294 291 292 292 291 291 290 288 287 286 285 284 284 284 283
294 295 295 297 300 304 306 307 308 309 311 308 307 313 307 306 300 297 300 300 303 298 293 290 291 292 292 290 289 290 291 290 289 287 286 284 284 283 283 282 282 281 279
292 293 292 292 293 295 297 296 295 296 297 297 294 291 293 292 291 292 292 292 291 292 291 291 291 288 290 289 288 287 286 285 285 283 282 282 281 280 279 278 277 276 276
290 289 288 288 287 288 289 290 288 288 291 291 290 289 287 287 289 289 289 290 290 290 290 289 286 286 284 283 283 283 282 281 280 280 278 278 277 276 275 275 274 274 273
288 287 287 287 285 285 284 284 287 288 288 286 286 286 286 285 286 288 289 289 288 288 287 284 282 282 281 280 280 279 278 278 277 276 275 274 274 274 273 272 272 272 272
287 287 287 286 286 285 285 285 284 284 284 284 285 286 285 286 284 285 286 286 286 284 283 282 280 279 278 278 276 276 275 275 275 274 273 272 272 272 271 271 270 270 270
287 286 286 286 286 285 285 284 283 283 282 282 282 283 282 283 284 284 284 285 283 281 279 279 278 277 277 276 275 274 273 273 272 272 271 271 271 271 270 269 269 269 269
286 285 284 284 283 283 283 283 282 282 281 280 280 280 280 282 282 281 280 280 279 278 276 275 274 274 274 273 273 272 272 271 271 271 270 270 270 269 268 268 268 268 268
284 284 284 284 282 281 280 280 280 279 278 278 277 277 277 278 277 276 275 275 274 274 274 273 273 272 272 272 271 271 271 271 270 270 270 269 269 269 268 268 267 267 267
282 281 280 280 280 279 278 278 277 277 276 276 275 274 274 274 273 273 273 272 272 272 271 271 271 271 270 270 270 270 270 270 269 269 269 268 268 268 268 267 267 267 267
278 278 278 277 277 277 276 275 275 274 274 273 273 272 272 271 271 271 271 271 270 270 270 270 270 270 270 269 269 269 269 269 269 268 268 268 268 268 268 268 267 266 266
276 275 275 275 275 274 274 273 273 272 272 271 271 270 270 270 270 270 269 269 269 269 269 269 269 269 269 269 269 268 268 268 268 268 268 268 268 268 268 268 267 266 266
274 274 273 273 273 272 272 272 271 271 271 270 270 269 269 269 269 269 268 268 267 267 268 268 268 268 269 269 269 269 269 269 268 268 268 268 268 268 268 268 267 267 266
272 272 272 272 271 271 270 270 270 269 269 269 269 269 268 268 268 268 268 268 268 268 268 268 268 268 268 268 268 268 268 268 268 268 268 268 267 267 268 267 266 266 265

GFSGL_850_thetae_066.txt.gz
Theta_e
324 319 319 322 321 321 321 321 321 320 318 317 316 315 314 314 314 314 314 315 315 317 318 318 318 319 319 319 318 318 319 319 318 318 318 318 317 316 316 317 318 317 317
327 323 319 319 320 321 321 320 320 320 320 317 315 315 315 315 316 314 314 314 316 317 319 320 319 319 319 318 317 317 317 317 318 318 317 317 317 317 317 318 319 318 316
326 325 324 321 319 319 320 321 322 322 321 320 318 315 315 315 315 315 316 316 316 316 316 316 316 318 318 318 318 317 317 317 317 317 317 318 318 318 319 319 319 319 319
327 327 326 325 324 322 321 319 319 321 322 321 320 321 320 320 318 316 315 315 316 316 316 316 317 316 316 318 320 319 318 319 318 319 319 319 319 319 319 320 319 319 319
326 326 326 326 326 325 324 323 322 320 319 321 322 323 322 321 321 321 319 317 316 317 316 316 317 317 316 317 319 319 319 319 319 319 320 320 320 320 319 319 320 320 320
321 323 325 325 326 326 325 325 324 324 323 321 319 322 324 322 322 322 322 321 321 320 319 319 320 318 317 317 318 319 319 319 320 320 320 320 319 319 319 320 320 319 317
317 319 322 324 324 324 325 325 326 326 325 324 324 323 323 321 320 321 322 322 321 321 320 320 319 320 320 319 320 320 320 321 321 321 320 320 320 320 320 319 319 319 315
312 314 316 318 320 322 322 323 324 325 326 326 326 326 325 325 325 323 321 322 322 322 322 322 322 322 322 321 321 321 321 321 321 321 321 321 320 320 319 317 315 311 305
309 310 310 312 315 317 318 319 320 323 323 325 326 326 326 327 327 326 325 323 323 323 323 323 323 322 322 321 321 321 321 321 322 321 321 321 319 317 316 311 305 304 301
307 308 309 309 309 311 313 316 318 318 319 325 325 326 326 325 326 326 327 326 325 325 324 324 323 323 322 322 322 323 322 321 319 316 313 309 306 303 301 299 299 299 298
305 305 306 307 308 308 309 309 312 316 318 320 324 325 326 326 326 325 326 326 326 326 326 325 324 324 324 324 323 321 319 315 303 298 298 297 296 296 295 295 294 295 294
299 301 302 302 303 305 305 306 308 310 314 319 324 322 322 322 323 325 326 326 325 325 325 322 315 311 308 307 308 310 303 298 295 294 293 292 291 291 290 291 291 290 290
296 295 294 294 296 298 301 303 306 308 308 310 309 308 306 305 309 312 314 319 322 317 309 294 291 299 298 295 292 291 289 292 292 292 292 291 288 287 286 287 286 285 285
294 293 292 292 292 293 294 295 296 297 298 298 298 298 296 296 295 296 296 297 300 299 294 290 293 292 290 291 291 292 292 290 288 288 286 284 284 284 284 284 284 282 281
291 290 290 289 288 287 287 287 286 287 290 291 291 291 291 290 288 291 291 291 290 291 291 291 290 290 290 287 288 287 285 286 286 284 283 282 283 283 281 279 278 277 276
291 290 289 288 288 287 286 285 285 285 285 285 286 287 286 287 287 288 289 289 291 290 291 289 287 287 287 285 285 285 284 285 283 283 282 280 278 276 275 275 274 274 274
290 289 288 288 287 287 287 287 286 285 285 285 285 285 285 286 286 288 289 289 287 289 290 285 285 284 283 282 281 281 281 280 278 276 275 274 274 274 273 273 272 272 272
288 288 288 287 287 287 286 286 288 287 285 284 284 285 285 285 285 285 285 286 286 286 284 281 280 280 279 279 278 277 276 275 274 273 273 272 272 272 272 271 271 272 271
288 287 287 286 286 286 286 286 285 285 284 283 282 283 283 283 284 284 284 284 282 280 279 279 278 278 276 275 274 273 273 272 272 272 271 271 271 272 272 271 271 270 270
285 285 285 284 284 284 284 284 283 283 282 282 282 280 280 281 282 280 279 279 278 277 276 275 274 274 273 273 272 272 272 271 271 271 271 271 271 271 271 270 270 270 269
283 283 283 283 282 281 281 281 280 280 279 278 278 276 276 276 276 275 274 274 274 273 273 273 272 272 272 272 272 271 271 271 270 270 270 270 270 270 270 269 269 268 268
281 281 280 280 279 279 278 278 277 277 276 275 274 274 273 273 273 273 272 272 272 271 271 271 271 271 271 270 270 270 270 270 270 270 270 270 269 269 269 269 268 268 267
278 278 278 277 277 276 276 275 275 274 274 273 273 272 272 272 271 271 271 271 270 271 271 270 270 270 270 270 270 270 270 270 269 269 269 269 268 268 268 268 267 267 267
276 275 275 275 275 274 274 274 273 273 272 272 272 271 271 271 270 270 270 271 270 270 270 270 270 270 270 269 269 269 269 268 268 268 268 268 268 268 268 268 268 267 267
274 274 273 273 273 273 272 272 272 271 271 270 270 270 270 270 269 269 269 269 269 269 269 269 269 269 268 268 268 268 268 268 268 268 268 268 268 268 268 268 267 267 267
273 272 272 272 271 271 271 271 270 270 270 269 269 269 269 268 268 268 268 268 267 267 267 268 268 268 268 268 268 268 268 268 268 268 267 267 267 267 268 268 268 267 266

GFSGL_850_thetae_069.txt.gz
Theta_e
322 321 320 319 320 321 321 321 321 321 321 322 321 319 319 319 319 319 317 316 316 316 317 316 313 314 315 318 318 319 320 319 320 319 319 318 318 318 317 316 317 317 317
325 323 321 320 320 321 321 321 320 321 320 319 319 319 318 319 318 317 316 315 314 314 315 317 316 316 318 318 319 319 319 319 319 319 318 317 316 316 316 316 316 317 317
325 325 324 322 320 320 320 320 320 320 320 320 320 320 318 317 317 316 316 315 314 314 314 315 315 314 314 317 318 318 319 319 319 319 318 317 317 317 318 317 317 318 318
325 326 325 325 324 322 321 320 320 319 320 320 320 320 320 319 317 317 316 315 314 315 314 314 314 315 315 316 316 316 316 317 318 318 318 319 319 319 318 317 318 318 317
324 323 323 324 324 324 324 323 322 321 321 320 319 321 321 320 320 319 317 315 315 315 315 315 315 315 315 315 316 316 317 317 317 317 318 319 319 318 318 318 318 318 318
321 321 321 323 323 322 322 324 324 324 324 323 322 321 320 320 320 320 320 320 320 320 320 320 318 317 317 316 316 317 317 318 318 318 318 318 318 318 319 318 318 319 318
313 315 317 320 321 322 321 322 322 322 323 324 324 324 324 324 323 322 321 320 321 320 321 321 321 321 321 321 320 320 319 319 320 320 320 319 319 319 319 319 319 319 318
308 309 310 311 313 316 319 320 321 321 321 320 320 321 322 324 325 325 324 322 320 321 321 321 321 321 321 321 320 320 320 320 320 320 320 320 320 320 320 320 319 318 318
307 307 308 308 309 310 310 312 315 317 319 320 320 321 321 320 321 322 323 322 321 322 322 322 322 322 322 321 321 321 321 322 321 321 320 320 320 320 320 319 318 313 310
306 306 306 306 307 308 308 309 309 310 311 313 315 316 317 320 322 322 322 323 322 323 324 322 320 321 322 322 321 321 322 321 320 319 317 317 315 310 308 308 306 305 303
303 303 304 305 305 305 305 305 306 306 307 308 309 310 312 314 318 322 323 323 323 321 320 321 321 322 321 320 319 318 317 315 312 307 300 296 297 297 296 295 295 295 295
299 299 300 300 301 302 303 304 303 303 304 306 306 305 304 304 305 309 315 320 321 319 315 312 311 309 318 318 315 310 305 297 296 293 291 290 292 291 291 292 292 292 292
295 295 295 296 297 297 298 299 300 301 301 299 297 297 296 296 297 297 299 301 307 308 300 298 292 294 298 296 297 298 294 294 292 292 290 290 289 287 288 289 289 290 289
292 292 292 293 292 293 293 292 293 293 293 292 291 290 290 290 291 291 292 293 294 295 292 292 292 293 292 292 290 290 292 291 291 290 288 287 285 287 287 286 286 286 285
291 291 290 290 290 289 289 288 287 286 289 289 288 287 286 285 285 287 289 289 289 289 289 290 290 289 288 288 287 287 287 287 288 285 284 285 285 284 284 282 279 277 277
289 289 288 288 288 288 287 286 286 286 286 286 286 289 289 287 288 288 288 288 288 288 289 288 286 286 285 285 284 284 284 283 282 282 282 281 279 277 277 276 276 275 275
288 288 287 287 287 287 286 287 287 286 286 286 286 286 287 288 289 288 287 288 287 288 288 285 284 283 282 282 282 282 282 281 278 277 277 276 275 275 274 274 274 274 273
288 287 287 287 287 287 287 287 287 287 287 286 285 285 285 285 285 286 286 286 287 285 283 282 281 280 280 279 277 275 275 274 274 274 274 273 273 273 272 272 272 272 271
287 286 286 286 286 286 285 285 285 285 284 283 282 283 283 283 284 284 284 285 284 282 280 280 278 276 275 275 274 274 273 273 273 272 272 272 272 271 271 271 271 271 271
285 284 285 284 284 284 283 283 283 283 282 282 282 280 280 281 282 280 279 277 277 276 275 274 274 273 273 273 272 272 272 271 271 271 271 271 271 271 271 270 270 270 270
283 283 282 282 282 282 281 280 280 279 278 277 276 275 274 275 275 275 274 274 273 273 272 272 271 271 271 271 270 270 270 270 270 270 270 270 270 270 270 270 270 270 269
280 280 280 280 279 279 278 277 276 276 275 274 273 273 273 273 273 272 272 272 271 271 271 271 271 271 271 270 270 270 270 270 270 270 270 270 270 270 270 269 269 269 269
277 277 277 277 276 276 275 275 274 274 273 273 272 272 272 272 271 271 271 270 270 270 270 270 270 270 270 270 270 270 269 269 270 270 269 269 269 269 269 269 269 269 268
275 275 275 275 274 274 274 274 273 272 272 271 271 271 271 270 270 270 270 270 270 270 269 269 269 269 270 270 269 269 269 269 269 269 269 269 269 269 268 268 268 267 267
274 274 273 273 273 272 272 272 271 271 271 270 270 270 270 269 269 269 269 269 269 269 269 269 269 269 269 269 269 269 269 268 268 268 268 268 268 268 268 267 267 267 267
272 272 272 272 271 271 271 270 270 270 269 269 269 269 269 269 269 269 269 269 268 268 268 268 268 268 268 268 268 268 268 268 268 268 268 267 267 267 267 267 267 266 266

GFSGL_850_thetae_072.txt.gz
Theta_e
323 320 319 319 319 320 320 320 320 322 321 322 322 322 321 320 320 321 322 321 319 318 319 320 319 317 316 315 313 315 316 315 317 317 318 318 319 319 318 317 317 317 317
325 324 322 321 319 318 320 320 321 320 320 321 323 321 321 320 319 319 319 320 320 320 319 318 318 317 317 315 315 315 314 314 317 318 318 318 318 318 318 318 318 317 316
325 324 324 324 323 321 319 319 320 321 320 320 320 321 322 321 319 319 318 319 319 319 318 317 317 316 316 315 317 317 314 314 316 317 318 318 318 318 318 318 318 317 317
324 324 324 325 325 324 322 321 320 319 319 320 320 320 319 319 320 319 318 318 319 319 317 316 316 316 315 315 315 315 315 315 315 317 319 318 317 316 317 316 316 316 316
322 321 322 322 323 323 323 323 323 321 321 320 319 319 319 319 319 320 320 319 317 317 317 316 316 315 315 314 314 314 314 315 316 317 317 317 316 316 316 316 316 316 317
319 320 320 320 321 321 321 321 321 321 322 323 323 322 322 322 321 320 319 319 320 320 319 317 317 316 315 315 315 315 315 316 316 316 316 316 316 316 317 317 317 318 317
314 316 318 318 319 319 320 320 320 320 320 320 320 320 320 321 321 321 322 321 321 320 320 319 319 319 320 319 319 319 319 318 317 317 317 317 317 317 318 318 318 318 318
305 306 307 308 310 313 316 318 318 319 320 319 320 319 319 319 319 320 320 320 320 320 321 321 321 321 321 319 319 319 319 320 320 320 319 318 318 318 318 318 318 318 318
304 305 305 306 306 307 307 308 310 311 314 315 316 317 317 318 319 319 319 320 320 320 320 321 320 320 321 321 319 318 318 317 317 318 318 318 319 319 319 319 318 316 313
303 302 303 303 304 305 305 306 306 307 307 307 307 307 307 308 311 314 315 315 316 318 316 317 318 318 318 319 319 318 318 317 317 317 315 313 310 305 312 312 310 307 303
299 299 300 301 301 301 301 302 301 301 301 302 303 303 303 304 305 306 308 310 312 313 314 313 314 315 317 318 318 317 314 312 311 307 300 295 295 298 301 300 299 297 297
297 297 297 298 298 298 298 298 298 297 298 299 299 300 299 298 297 299 301 304 305 306 305 301 300 298 300 305 306 306 307 305 298 295 293 292 292 292 291 291 292 293 292
295 296 295 295 295 296 296 296 296 295 294 293 294 294 293 293 292 292 294 296 297 298 295 292 293 294 295 295 294 293 292 293 291 292 291 289 289 287 288 288 288 288 288
295 294 294 295 294 294 294 293 293 292 291 290 289 289 289 290 289 290 290 291 291 291 291 290 290 289 288 288 288 289 288 288 289 286 285 285 284 285 287 285 285 284 284
291 291 291 291 292 291 291 289 289 287 287 288 288 288 288 287 287 288 289 289 289 289 289 289 289 288 288 286 285 285 285 285 285 284 284 284 285 285 283 282 280 278 278
289 288 288 288 287 287 287 287 286 286 287 287 287 287 286 286 287 287 288 288 288 288 290 288 288 288 287 286 285 284 285 283 282 282 281 279 278 277 276 276 276 276 276
288 288 287 287 287 287 287 287 287 286 286 286 286 286 286 286 286 286 286 287 287 288 288 286 284 283 283 284 283 281 280 278 276 276 275 275 275 275 275 275 274 274 274
287 287 287 286 286 286 286 285 285 285 286 285 284 284 284 284 284 284 284 284 286 285 284 284 282 279 277 276 276 275 275 274 275 274 274 274 273 273 273 273 273 273 273
285 285 285 285 284 284 284 284 284 284 283 283 282 282 282 282 282 283 283 283 280 278 277 276 275 275 275 274 274 273 273 273 273 273 273 273 273 272 272 272 272 271 271
284 283 283 283 283 283 282 282 282 281 280 279 279 278 276 276 277 277 277 276 275 274 274 274 273 273 273 272 272 272 272 272 272 272 271 271 271 271 271 271 270 270 270
281 281 281 281 280 280 279 279 277 276 276 276 275 275 274 275 274 274 274 273 273 273 272 272 272 271 271 271 271 271 271 271 271 271 271 270 270 270 270 270 270 270 270
278 278 278 278 277 277 276 275 275 274 274 274 273 273 272 273 273 272 272 272 271 271 271 271 271 270 270 270 270 270 270 270 270 270 270 270 270 270 270 269 270 270 270
276 276 276 276 275 275 274 274 273 273 273 272 272 272 272 271 271 271 271 270 270 270 270 270 270 270 270 270 269 269 269 269 269 269 269 269 269 269 269 269 269 269 269
274 274 274 274 274 273 273 273 272 272 272 271 271 270 270 270 270 270 270 269 269 269 269 268 269 269 269 269 269 269 269 269 269 269 269 269 269 269 268 268 269 269 269
273 273 273 272 272 272 272 271 271 271 270 270 270 270 269 269 269 269 269 269 269 268 268 268 268 268 268 268 268 268 268 268 268 268 268 268 268 268 268 268 268 268 268
272 272 271 271 271 271 271 270 270 270 269 269 269 269 269 269 269 268 268 268 268 268 268 268 268 268 268 268 268 268 268 268 268 268 268 268 268 268 268 267 267 267 266

GFSGL_850_thetae_075.txt.gz
Theta_e
322 319 318 318 320 320 320 319 319 319 319 320 321 321 322 322 324 323 321 321 317 313 316 317 316 316 317 315 318 318 317 318 317 315 315 315 316 315 316 317 317 318 318
324 322 320 319 319 319 319 320 320 319 320 320 321 319 321 322 323 323 320 320 321 320 320 318 319 318 318 318 318 318 316 317 316 316 315 315 316 315 315 317 317 317 318
324 324 324 323 322 320 319 319 320 320 320 320 320 321 321 321 321 321 321 320 319 320 321 321 320 319 319 319 319 317 317 316 316 315 314 316 317 317 317 315 315 316 317
324 323 323 323 324 323 322 320 320 319 319 320 320 320 320 320 321 320 320 319 318 318 318 318 319 319 319 318 318 318 317 317 317 317 317 317 317 317 317 317 317 317 317
323 323 322 322 323 323 322 322 322 322 321 320 320 319 319 319 319 318 318 318 318 318 319 319 319 318 318 318 317 317 316 317 317 317 317 317 317 317 318 318 318 317 316
320 320 320 320 321 321 322 322 322 322 322 321 321 321 321 320 320 319 319 319 319 319 319 319 320 319 319 318 317 317 317 317 317 317 317 317 317 317 317 317 317 317 318
316 318 318 317 318 318 319 320 320 320 320 320 320 320 320 320 320 320 320 320 319 318 319 319 320 319 319 319 319 319 318 318 318 317 317 317 317 317 317 317 317 317 317
309 309 310 311 313 315 316 316 317 317 317 318 318 318 318 318 319 319 319 319 319 320 319 318 317 317 318 318 318 319 319 320 319 319 318 317 316 316 316 317 317 317 317
302 303 303 304 305 306 306 307 309 310 312 313 313 314 313 313 315 316 317 317 317 316 317 317 316 316 316 317 318 317 317 316 316 317 317 316 316 316 316 316 315 313 308
301 299 299 301 302 303 303 304 303 302 302 301 302 303 302 303 303 305 307 308 308 309 311 312 313 313 314 316 316 317 315 314 313 313 312 311 309 308 304 303 306 307 305
296 297 298 299 300 300 299 301 300 298 298 299 298 299 298 297 299 300 302 304 305 305 305 305 305 304 305 309 312 313 311 309 305 303 301 299 298 298 299 299 298 300 299
294 296 296 296 297 298 298 298 297 296 296 296 296 295 294 294 294 294 295 295 296 297 298 297 296 296 297 299 300 302 302 298 296 294 293 292 292 291 290 290 291 292 291
293 294 294 294 293 293 293 293 293 293 292 292 292 291 291 291 291 292 292 292 292 292 292 291 290 290 290 290 289 290 291 291 290 289 288 287 285 285 286 286 286 286 287
292 292 291 292 292 292 292 291 291 290 290 290 289 289 289 289 289 289 289 290 290 289 289 289 289 289 289 289 289 288 288 288 289 288 286 285 284 285 285 285 285 284 283
290 290 291 291 291 291 291 290 290 289 289 288 288 288 288 288 288 288 289 289 289 288 288 288 288 288 288 287 287 287 287 286 285 284 285 285 285 284 283 281 279 278 277
290 290 290 290 290 289 289 289 289 289 289 289 288 288 287 286 287 288 288 288 288 288 289 289 288 287 286 285 285 284 284 285 284 282 280 278 277 276 276 276 276 276 275
289 289 289 289 288 288 288 288 288 287 287 287 287 286 286 286 286 286 286 286 287 286 288 286 285 283 281 279 278 277 277 276 275 276 276 276 275 275 275 274 274 273 273
287 287 287 287 287 286 286 286 286 286 286 286 285 285 285 285 285 285 285 284 285 285 283 281 279 277 276 275 275 275 274 274 274 274 274 274 274 274 274 273 273 273 272
285 285 285 285 285 284 284 284 284 283 283 282 281 281 280 280 280 281 280 279 278 277 276 276 275 274 274 274 273 273 273 273 273 273 273 273 272 272 272 272 272 272 272
282 283 282 282 282 282 281 280 280 279 277 277 276 276 275 275 276 276 276 275 275 274 274 273 273 273 272 272 272 272 272 272 272 272 271 271 271 271 271 271 271 271 271
280 280 280 279 279 279 278 277 276 276 275 275 275 274 274 274 274 274 273 273 273 272 272 272 272 272 271 271 271 271 271 271 271 271 271 271 271 270 270 270 270 270 270
277 277 277 277 277 276 276 275 275 274 274 273 273 273 272 272 272 272 272 272 272 271 271 271 270 270 270 270 270 270 270 270 270 270 270 270 270 269 269 269 269 269 269
276 276 276 276 275 275 274 274 273 273 273 272 272 271 271 271 271 271 271 270 270 270 270 270 270 269 269 270 269 269 269 269 269 269 269 269 269 269 269 268 268 269 269
274 274 274 274 273 273 273 272 272 271 271 271 270 270 270 270 270 269 269 269 269 269 269 269 269 269 269 269 269 269 269 269 269 269 268 268 268 268 268 268 268 268 268
273 273 272 272 272 271 271 271 271 270 270 270 269 269 269 269 269 269 269 269 268 268 268 268 268 268 268 268 268 268 268 268 268 268 268 268 268 268 267 267 267 267 268
271 271 271 271 270 270 270 270 269 269 269 269 269 268 268 268 268 268 268 268 268 268 268 268 268 267 267 267 267 267 268 267 267 267 267 267 267 267 267 267 267 267 267

GFSGL_850_thetae_078.txt.gz
Theta_e
321 324 324 323 321 321 320 320 320 320 320 320 320 321 322 323 324 322 321 321 322 317 310 310 310 312 311 314 316 316 318 318 318 318 318 317 317 317 317 316 315 316 316
322 322 321 320 321 320 320 320 319 319 320 320 320 321 322 322 322 323 323 322 322 321 316 310 311 313 315 317 316 315 316 316 316 315 317 317 317 316 317 318 318 318 317
324 322 321 322 319 319 320 320 320 320 319 320 320 321 321 321 321 322 322 322 322 321 320 320 313 314 315 316 316 316 317 317 317 318 318 317 317 317 318 318 318 318 319
321 322 322 322 322 321 321 319 319 320 320 320 321 321 320 320 320 321 322 322 321 320 320 320 320 319 320 319 320 320 319 319 319 319 318 319 318 318 318 318 318 319 319
322 322 323 323 322 322 321 320 320 320 320 320 320 319 321 321 320 320 320 320 320 319 319 318 319 319 319 319 320 320 320 320 320 320 319 318 319 319 319 319 319 319 319
319 321 321 321 322 321 321 322 321 321 321 320 320 320 321 320 319 319 319 319 319 319 319 319 319 319 319 319 319 319 319 319 319 319 319 319 318 318 318 319 319 319 319
316 316 315 318 319 318 319 319 319 319 319 320 320 320 320 319 319 319 320 319 319 319 318 318 318 318 319 319 319 319 318 319 319 318 318 318 319 318 318 318 318 318 318
308 309 307 311 316 315 314 315 316 317 316 316 316 316 316 316 317 318 318 318 316 316 316 317 317 316 316 316 316 316 317 317 317 317 317 317 317 317 316 316 316 316 316
299 300 303 306 306 304 306 308 311 312 313 313 312 311 311 312 313 315 315 313 314 313 314 314 314 314 314 315 315 314 314 314 314 314 315 315 313 313 313 313 311 308 309
303 303 304 303 301 302 301 301 300 301 303 302 302 302 301 303 304 305 305 306 307 307 306 304 305 307 308 309 310 310 310 310 309 308 307 306 303 302 301 301 302 302 302
300 299 300 299 299 299 298 297 296 298 298 298 298 297 297 298 298 300 302 302 300 301 301 301 301 300 301 302 303 302 303 302 298 297 296 296 296 296 295 295 295 297 296
293 292 294 296 295 295 296 294 294 295 295 292 292 293 293 293 294 294 295 295 295 296 295 294 294 294 294 295 295 293 293 293 293 293 293 292 291 291 290 289 290 290 290
293 292 292 292 292 290 290 288 289 289 290 289 289 290 291 291 291 292 292 292 292 292 291 290 290 290 290 290 290 290 290 290 290 290 289 289 288 288 287 287 287 287 287
288 290 290 289 288 288 289 290 290 289 289 289 289 290 290 290 290 290 290 290 290 290 289 289 289 289 289 289 289 289 289 288 288 287 286 286 285 286 286 286 285 284 282
287 285 285 287 288 289 289 287 289 290 290 289 288 289 288 289 289 288 289 289 289 288 288 288 288 288 287 287 287 287 286 285 284 283 282 281 280 279 278 277 278 278 278
288 288 287 285 284 284 286 287 287 287 287 288 288 288 288 287 287 287 287 287 287 287 287 286 285 284 283 282 281 280 280 279 278 277 277 277 276 276 276 276 277 276 276
288 286 287 285 284 283 283 282 283 285 285 286 286 286 286 286 286 286 286 285 285 285 285 283 280 278 277 276 276 276 276 276 276 275 275 275 275 275 275 275 275 275 275
287 287 287 287 286 286 286 285 285 284 283 284 284 285 285 285 284 284 284 283 283 281 279 277 276 275 275 274 274 274 274 274 274 274 274 274 274 274 274 274 273 273 274
285 285 285 285 285 284 284 283 283 282 281 280 279 279 278 278 278 278 278 278 277 276 275 275 274 274 273 273 273 273 273 274 273 273 273 273 272 272 272 272 273 272 272
282 282 282 281 281 281 280 280 278 278 277 277 277 277 276 276 276 276 276 276 275 274 273 273 273 273 273 272 273 273 272 272 272 271 272 272 272 271 271 271 271 272 272
279 279 279 279 279 278 278 277 277 276 276 275 275 275 275 274 275 275 275 274 274 273 273 272 272 272 271 271 271 271 271 271 271 271 271 271 271 270 270 270 270 270 270
277 277 277 277 276 276 276 275 275 274 274 274 274 274 274 273 273 273 273 273 272 272 272 271 271 271 271 271 271 270 270 270 270 270 270 270 270 269 269 269 269 269 269
276 276 275 275 275 275 274 274 273 273 272 272 272 272 272 272 272 271 271 271 271 271 271 270 270 270 270 270 270 270 270 269 269 269 269 269 268 268 267 268 268 268 268
274 274 274 273 273 273 272 272 272 272 271 271 270 270 271 271 270 270 270 270 270 270 270 269 269 269 269 269 269 269 269 269 269 269 269 268 268 267 267 267 267 266 266
272 272 272 272 272 271 271 271 270 270 269 269 269 269 269 269 269 269 269 269 269 269 269 268 268 268 268 268 268 268 268 268 268 268 268 268 268 268 267 267 267 266 266
272 271 271 271 270 270 270 269 269 269 269 269 269 269 269 269 269 269 269 268 268 268 268 268 268 268 267 267 268 267 267 267 267 267 267 267 267 267 266 265 265 265 265

GFSGL_850_thetae_081.txt.gz
Theta_e
328 326 325 324 326 324 323 322 323 324 322 321 321 322 322 323 323 322 321 321 320 315 313 312 313 314 313 312 315 313 313 318 319 319 317 317 318 318 317 318 319 319 316
328 325 323 323 324 322 322 322 321 322 321 321 321 321 322 323 322 324 324 322 321 321 318 316 317 313 311 311 311 310 314 316 314 316 315 316 317 316 316 317 317 317 317
321 323 322 323 322 322 322 321 321 320 320 320 321 321 322 322 322 322 323 323 321 321 322 322 322 318 312 312 311 311 312 313 315 316 315 316 315 317 317 318 318 318 317
322 322 320 322 321 322 323 323 321 321 321 319 320 320 321 321 321 321 322 322 323 322 322 322 321 320 320 319 314 312 314 315 316 317 317 318 319 319 319 319 319 319 319
322 321 320 321 321 321 320 320 322 322 322 322 320 320 320 320 320 321 321 322 322 323 322 321 320 321 321 320 321 320 319 320 321 321 321 321 320 320 321 320 320 320 320
320 320 319 320 320 321 321 321 320 319 320 321 321 321 321 321 321 321 321 322 321 320 320 320 320 319 320 319 319 319 319 320 320 320 320 320 320 320 320 321 321 321 321
315 313 314 316 316 317 319 319 319 320 320 320 320 320 320 320 320 320 319 319 319 319 319 319 319 319 319 319 319 320 320 320 320 320 319 319 318 318 319 319 319 319 317
304 306 306 311 312 309 313 317 314 314 315 315 316 316 316 317 318 318 318 317 317 317 317 317 317 317 317 317 317 317 316 317 317 317 317 316 316 316 316 316 315 315 314
301 300 300 304 310 308 305 313 310 309 310 309 309 309 311 311 312 312 313 313 311 311 310 310 310 311 310 311 312 312 312 312 311 311 311 310 307 306 306 306 305 305 305
298 299 295 299 299 300 302 304 302 303 303 304 305 304 305 305 306 306 306 307 306 304 304 304 304 304 304 305 305 306 305 305 303 301 301 300 300 299 299 299 299 299 299
294 294 294 297 298 299 301 301 296 296 298 299 299 297 297 297 298 299 301 300 300 300 301 299 297 296 297 298 298 299 298 297 296 295 295 295 294 294 293 293 292 293 294
296 296 296 297 297 297 296 296 296 292 292 292 293 293 293 293 294 295 295 296 296 295 294 294 293 293 294 294 294 293 291 291 291 291 291 291 290 290 289 289 289 289 289
294 296 296 296 296 295 294 290 289 290 289 289 289 289 291 291 291 291 292 292 292 292 292 292 291 291 292 292 291 291 291 290 289 289 288 288 287 287 287 286 285 285 285
287 288 287 287 286 287 290 290 289 288 288 288 287 287 289 290 290 290 290 290 290 290 289 290 290 290 290 289 290 290 289 288 288 286 284 284 283 283 282 282 281 281 281
287 286 286 288 289 290 291 289 290 289 289 289 289 290 290 290 290 289 289 289 289 289 288 288 287 287 286 286 286 286 285 285 283 281 280 280 279 279 279 279 279 280 280
286 286 286 286 285 286 288 288 288 288 289 289 289 289 288 288 288 288 288 287 286 286 286 284 282 281 280 280 279 279 278 278 278 278 278 278 278 278 278 278 278 279 279
285 285 285 285 284 284 284 284 286 285 285 286 286 286 286 286 285 285 285 285 284 284 281 280 279 278 278 278 277 277 277 276 276 276 276 276 276 277 277 277 276 277 277
286 286 285 284 284 284 284 283 282 282 280 282 280 280 280 282 282 282 281 279 279 278 278 278 277 277 276 276 275 275 275 275 274 275 274 274 274 275 275 275 276 274 275
285 284 284 283 283 282 281 281 280 280 279 279 278 277 277 277 277 277 277 277 277 277 276 275 275 275 275 274 274 274 273 273 273 273 273 273 273 274 274 274 274 274 274
281 281 281 280 280 280 280 280 279 279 278 277 276 276 276 276 276 276 276 275 275 275 274 274 273 273 273 272 272 272 272 272 272 272 271 271 271 272 272 273 273 273 273
280 279 279 279 279 279 279 278 278 278 277 275 275 275 275 275 274 274 273 273 273 272 272 272 272 271 271 271 271 271 270 270 270 270 270 270 270 271 271 272 271 272 272
279 279 278 278 278 277 277 277 277 276 276 275 274 273 273 273 273 272 272 271 271 271 271 270 270 270 271 271 270 270 269 269 269 270 271 270 269 270 270 270 271 270 271
278 277 277 277 276 276 276 276 276 275 274 274 273 272 272 272 271 271 270 270 270 270 272 271 270 270 271 270 269 269 269 270 270 270 270 270 269 268 268 269 269 269 269
276 276 276 275 274 275 275 274 273 273 273 273 272 271 271 270 270 269 269 271 270 269 270 270 270 270 270 269 269 269 270 269 269 269 269 269 268 267 268 267 268 268 268
274 274 274 274 274 274 273 273 272 272 272 271 271 270 270 269 269 268 267 269 270 269 269 269 269 269 269 269 269 269 269 268 268 269 269 269 266 267 266 266 266 266 267
272 272 273 273 272 272 272 272 271 271 270 270 270 269 269 268 268 267 267 268 269 268 268 267 267 268 268 268 268 268 268 268 268 268 268 268 266 265 265 266 265 265 266

GFSGL_850_thetae_084.txt.gz
Theta_e
331 330 328 326 325 325 325 325 324 323 323 323 323 323 323 323 323 322 323 322 321 321 322 321 320 318 315 316 319 315 317 316 315 315 315 315 315 316 316 317 318 318 318
329 328 326 325 324 324 323 323 322 324 322 322 322 322 322 322 322 322 322 323 323 323 319 316 314 314 315 315 315 315 314 314 313 313 313 316 318 317 317 317 317 317 317
327 325 323 323 323 323 322 322 321 321 320 321 321 322 321 322 323 322 323 322 322 321 321 319 317 315 317 316 317 316 313 313 315 311 311 313 313 314 316 316 317 318 318
325 323 322 322 322 322 321 321 320 320 320 320 321 322 322 322 322 322 322 322 322 322 322 322 322 321 321 320 320 318 315 313 312 311 311 312 314 318 319 320 320 320 320
322 322 322 323 322 322 323 322 321 321 321 320 320 320 321 322 321 321 321 321 321 321 322 322 321 321 321 321 319 319 319 318 318 318 318 318 319 320 321 322 322 321 322
322 321 320 320 319 320 320 321 321 321 320 321 320 320 320 320 320 321 321 321 321 321 322 321 322 321 321 321 320 320 319 320 321 320 320 320 320 319 319 319 319 319 319
314 316 317 318 319 320 320 319 320 319 319 320 320 320 320 320 320 320 320 320 321 321 320 319 319 319 319 319 318 319 319 319 319 319 318 318 317 317 317 317 317 315 314
305 306 307 311 311 311 314 316 315 317 318 317 317 317 317 318 319 320 320 319 318 318 318 318 318 317 317 317 316 315 315 315 315 315 313 312 311 310 310 310 310 310 309
300 300 300 303 304 304 306 307 308 308 311 309 307 309 310 311 312 314 314 314 314 313 312 312 311 311 312 311 311 310 309 308 307 306 305 304 303 302 304 305 305 304 303
297 298 298 299 301 297 298 299 301 304 304 307 304 304 303 305 303 306 307 307 306 306 305 305 306 306 305 305 304 304 302 301 300 299 299 298 298 297 296 297 297 297 297
298 297 298 297 299 300 297 295 297 298 300 301 296 295 297 296 297 300 300 299 300 300 300 297 296 296 297 298 298 297 297 296 295 295 295 294 293 293 292 292 292 292 292
296 299 296 295 293 295 295 294 294 296 296 294 293 292 291 292 292 294 295 295 295 295 294 293 292 292 293 293 293 293 292 292 291 291 291 291 290 290 290 289 289 289 288
291 292 292 292 294 294 295 293 293 292 291 291 292 292 291 291 291 292 292 292 292 293 292 291 291 291 291 292 291 290 290 290 289 288 287 287 286 285 284 285 283 284 282
290 290 290 292 293 293 292 293 293 292 292 292 292 292 292 292 292 291 291 291 291 290 290 290 290 290 290 289 289 288 288 287 286 284 282 282 281 281 281 280 281 280 280
288 289 289 290 291 291 291 290 290 289 290 289 289 289 289 289 288 288 289 289 288 288 287 287 287 286 285 285 285 284 283 283 282 281 281 280 280 279 279 279 279 279 279
287 287 286 287 287 287 287 287 287 287 287 288 288 289 288 288 288 287 287 287 286 286 286 285 283 281 281 280 280 280 280 279 279 279 279 278 278 278 278 278 278 278 278
286 286 286 286 285 285 286 286 286 285 285 286 286 286 286 286 286 286 285 284 284 283 282 280 279 279 278 278 278 278 277 277 277 277 277 276 277 276 276 276 276 275 276
286 285 285 284 285 285 284 283 283 282 282 281 279 279 280 281 281 281 280 280 279 279 279 278 277 277 276 276 276 275 275 275 275 275 275 275 275 275 275 274 275 274 275
283 283 283 283 282 282 281 281 281 280 280 279 279 279 278 278 277 277 278 278 277 276 276 276 275 275 275 275 274 274 274 274 273 273 273 274 273 273 273 273 273 273 273
281 281 281 281 281 280 280 280 280 279 278 278 277 277 277 277 276 276 276 276 275 275 275 274 274 274 273 273 273 273 272 272 272 272 272 272 272 272 272 272 272 272 272
281 280 280 280 280 279 279 279 278 278 277 276 275 275 276 275 275 274 274 274 274 273 273 273 273 273 273 272 272 271 272 271 271 271 271 271 271 270 271 271 271 271 271
279 279 278 278 278 278 278 277 277 276 276 275 275 274 274 274 273 273 273 273 273 273 273 272 272 272 272 271 271 270 270 271 271 271 271 270 270 269 270 270 270 270 270
278 278 278 277 277 277 277 277 276 276 275 274 274 273 273 272 272 272 272 272 272 272 272 271 271 271 270 270 270 271 271 270 270 270 270 270 269 269 269 269 269 268 269
277 277 276 276 276 276 276 275 275 274 274 273 273 272 272 271 271 270 271 271 271 270 271 270 270 271 270 269 269 269 269 269 269 269 269 269 269 268 268 268 268 267 268
275 275 275 275 275 274 274 274 273 273 273 272 272 271 271 270 270 269 269 270 270 269 270 269 269 269 269 269 269 269 268 268 268 268 268 268 268 267 266 267 267 267 267
273 273 273 273 273 273 273 273 272 272 271 271 271 270 270 269 269 268 268 268 269 268 268 268 267 268 268 268 268 268 268 268 268 268 268 268 268 268 268 267 267 267 266

GFSGL_850_thetae_087.txt.gz
Theta_e
333 331 330 328 325 325 324 324 325 325 325 324 325 324 324 324 324 324 324 324 322 322 321 321 322 322 321 320 320 321 320 319 318 317 318 319 318 316 316 317 317 317 317
333 331 329 327 324 324 324 324 323 323 322 323 323 324 323 323 323 324 323 323 322 321 320 321 321 321 321 321 319 315 316 316 316 316 318 318 317 314 314 315 317 318 317
330 329 327 325 323 324 323 322 322 322 321 321 322 322 322 323 322 323 322 322 321 321 321 320 322 319 319 316 314 316 317 316 315 315 315 314 313 311 312 314 315 315 318
328 327 325 324 324 323 322 322 322 321 320 321 321 322 321 321 322 322 322 323 322 322 322 322 321 320 319 317 317 319 319 317 317 317 314 314 314 315 313 315 319 320 320
324 324 323 322 322 323 323 322 321 320 319 320 321 322 322 321 322 322 322 322 322 321 320 320 319 319 320 320 320 320 319 318 319 319 318 318 319 318 318 319 319 320 320
322 322 322 320 321 320 320 321 319 319 319 319 320 320 321 321 322 321 321 321 321 321 320 320 319 320 320 321 320 319 318 318 318 319 318 319 319 318 318 319 319 319 318
312 316 318 320 321 320 320 321 321 321 321 319 319 320 320 320 320 320 321 321 321 321 319 319 318 317 317 319 319 319 319 319 319 318 318 317 317 317 317 316 314 313 312
305 306 308 314 316 316 317 317 316 317 317 317 316 318 319 319 319 319 320 320 319 319 318 317 316 316 317 317 317 315 315 314 313 313 311 310 310 309 309 309 309 308 307
301 301 300 303 303 306 308 310 310 309 309 310 309 310 313 315 314 312 312 315 316 316 315 315 314 312 311 310 311 310 308 307 306 304 303 303 302 302 303 302 302 302 302
299 300 300 300 300 300 300 301 300 301 302 302 303 304 306 308 303 305 305 307 309 308 307 306 307 307 307 306 304 302 300 299 299 299 299 298 297 297 297 297 296 296 296
297 298 298 298 298 300 296 300 300 298 297 299 298 298 299 304 301 300 301 301 303 303 302 299 297 297 297 298 297 296 296 295 296 296 295 293 292 292 293 292 292 292 292
294 296 296 295 296 295 297 295 296 297 297 292 292 295 294 296 298 298 300 299 295 295 295 293 293 293 294 294 294 293 292 292 291 291 291 291 290 290 290 290 290 289 289
294 293 294 293 293 294 293 294 292 294 293 295 293 292 292 291 291 291 291 291 292 292 292 292 291 290 291 291 291 291 290 290 290 290 290 289 288 287 285 285 285 284 284
290 291 291 292 292 292 291 291 292 291 291 291 290 290 290 289 290 291 291 292 291 292 291 291 291 291 290 290 289 289 288 288 287 287 286 284 282 282 282 281 281 281 280
288 288 289 290 290 290 290 290 290 289 289 290 290 290 290 289 289 289 290 290 290 289 288 288 288 287 287 286 285 284 283 283 282 281 281 281 280 279 279 279 279 279 279
287 287 287 286 286 287 288 288 288 288 288 288 288 288 289 288 287 287 287 287 287 285 286 285 283 282 281 281 280 280 279 279 279 279 278 278 278 278 278 278 278 277 277
287 286 286 286 286 285 285 285 286 284 285 285 286 286 285 284 284 284 284 284 284 282 281 280 280 279 279 279 279 278 278 278 278 278 277 277 277 277 277 277 277 276 276
285 285 285 285 284 284 283 283 282 281 280 279 278 280 282 282 282 281 281 280 280 279 279 279 278 278 278 277 277 278 277 276 277 277 276 276 275 276 275 275 275 274 274
283 283 282 282 282 281 281 281 281 280 280 280 279 279 278 277 278 278 278 279 279 278 277 277 277 277 277 276 276 276 276 275 275 275 275 274 274 274 273 273 273 273 273
281 281 281 281 281 280 280 280 280 279 278 277 277 278 279 278 277 277 277 277 277 277 277 276 276 275 275 275 274 274 274 274 273 273 273 273 272 272 272 272 272 271 271
280 280 280 280 280 279 279 279 279 278 278 276 276 276 276 277 277 276 276 276 275 275 275 275 274 274 273 273 273 273 273 273 273 272 272 271 271 272 271 271 271 270 270
279 279 279 278 278 278 278 277 277 277 276 276 274 274 274 275 275 275 274 274 273 273 273 273 273 272 272 272 272 272 272 271 271 271 270 270 270 270 270 270 270 269 269
278 278 278 277 277 277 277 276 276 275 275 274 274 274 273 273 273 273 272 272 272 272 272 272 272 271 271 271 271 270 270 270 270 270 270 269 269 270 269 269 269 269 268
277 277 277 276 276 276 276 275 275 274 274 273 273 272 272 271 272 272 271 271 271 271 271 271 271 270 269 270 270 270 270 269 269 269 269 269 269 269 269 269 268 268 268
275 275 275 275 275 274 274 274 273 273 273 272 272 271 271 270 270 270 270 270 270 270 269 270 270 270 270 270 269 269 269 269 268 268 268 268 268 268 268 268 268 267 267
273 274 274 273 273 273 273 273 272 272 272 271 271 270 270 269 269 269 269 269 269 269 269 269 269 269 269 269 269 269 269 268 268 268 268 268 268 267 268 268 267 267 267

GFSGL_850_thetae_090.txt.gz
Theta_e
329 330 332 330 329 328 326 325 324 324 324 324 325 324 324 323 323 324 324 324 324 324 322 323 322 321 318 322 322 321 321 321 320 319 318 319 318 318 318 318 317 317 317
328 329 330 329 328 325 324 324 324 323 323 324 324 325 324 323 324 324 324 324 324 323 322 322 323 320 320 321 321 320 320 320 320 319 317 317 316 318 318 318 314 317 318
324 330 329 328 326 325 324 323 324 324 322 321 322 323 323 323 323 323 323 323 323 323 323 321 321 321 322 321 321 319 320 317 316 315 315 316 316 317 315 314 313 311 311
325 329 329 326 324 324 324 324 323 322 322 321 321 322 322 323 323 323 323 322 323 323 322 321 321 321 321 320 320 321 319 316 315 318 318 318 318 316 316 316 315 316 317
325 325 326 325 324 324 323 323 322 322 320 319 320 321 321 321 321 322 322 322 322 321 321 320 320 320 320 321 320 318 317 319 319 318 318 317 317 317 317 318 318 318 318
321 323 324 324 323 322 322 322 321 320 319 319 320 322 322 320 321 322 322 322 322 321 321 322 321 321 321 320 320 319 320 319 318 318 317 318 317 316 316 318 318 318 318
311 313 320 322 322 322 322 322 321 320 319 319 320 321 321 322 321 321 321 321 321 321 320 320 319 320 320 319 319 319 319 318 318 318 318 318 317 317 316 316 315 315 313
304 306 310 314 316 317 318 319 320 319 318 318 318 318 319 320 320 320 320 320 320 320 319 319 318 318 317 318 317 318 317 317 316 315 314 313 312 312 312 310 310 309 308
303 302 303 302 302 304 308 310 308 311 313 313 315 313 314 316 315 315 316 318 318 317 315 314 315 315 315 315 313 313 313 311 309 308 307 306 305 304 303 304 303 302 302
299 300 301 301 301 302 300 300 301 303 304 303 307 306 303 305 304 307 309 312 312 311 309 307 307 308 307 306 306 306 306 303 302 301 300 299 299 299 299 297 297 296 296
295 297 299 300 300 300 300 299 300 299 299 299 299 298 299 298 299 302 303 305 305 305 302 300 300 299 300 299 298 298 298 296 296 296 296 295 294 294 293 293 293 293 292
294 295 296 297 298 297 298 297 296 298 297 297 298 298 297 296 297 297 298 300 300 301 297 295 294 294 295 295 294 294 294 293 293 292 291 291 291 290 290 290 290 289 289
293 293 293 293 293 293 295 294 292 293 294 293 294 293 293 293 293 294 293 294 294 294 293 291 291 291 291 292 291 291 290 290 290 290 290 289 288 287 286 285 286 286 286
291 291 291 292 292 292 292 291 291 292 292 292 292 292 291 290 291 291 292 292 291 291 291 290 290 290 289 288 288 288 288 287 287 286 286 285 284 283 282 282 281 281 281
288 289 289 290 290 290 291 291 291 290 290 291 290 291 291 290 289 289 289 289 289 290 291 290 289 287 284 284 284 283 283 283 282 282 281 281 281 280 280 279 279 279 279
287 286 287 287 288 289 289 289 288 288 288 288 287 289 288 287 286 286 288 287 286 285 286 285 283 282 281 281 280 280 280 280 280 279 279 279 279 279 278 278 278 277 277
287 287 287 286 286 286 286 287 288 287 287 287 286 286 285 286 285 285 285 285 283 282 282 281 281 280 280 279 279 279 279 279 278 278 278 278 277 277 277 277 277 276 276
286 285 285 285 285 285 284 283 282 282 283 284 283 283 283 282 283 282 281 281 280 280 280 279 279 279 279 279 278 278 278 277 277 276 276 276 276 276 276 276 276 275 275
284 284 283 283 283 282 282 282 281 280 280 279 278 279 279 280 280 279 278 278 279 278 278 278 277 277 277 277 277 276 276 276 276 275 275 275 275 275 274 274 274 273 273
281 281 281 281 281 281 280 280 279 279 278 278 278 278 278 277 277 277 277 277 277 277 277 276 276 276 276 276 276 275 275 275 274 274 274 273 273 273 273 273 272 272 272
280 280 280 280 280 279 279 279 278 278 276 276 277 277 277 276 276 276 276 276 276 275 275 275 274 274 274 274 274 273 273 273 273 273 272 272 272 271 271 271 271 271 271
279 279 279 279 279 278 278 278 277 277 276 275 275 275 274 275 275 274 274 273 273 273 273 273 273 273 273 273 272 272 272 272 271 271 271 271 271 270 270 270 270 270 270
278 278 278 277 277 277 277 277 276 276 275 275 274 274 273 273 273 273 272 272 272 272 272 272 272 272 272 271 271 271 271 271 270 270 270 270 270 270 270 270 270 269 269
277 277 277 276 276 276 276 275 275 274 274 273 273 272 272 272 271 271 271 271 271 272 271 271 271 271 271 271 270 270 270 270 270 269 269 269 269 269 269 269 268 268 268
275 275 275 275 275 275 274 274 274 273 273 272 272 272 271 271 271 271 270 270 270 271 271 271 270 270 270 270 270 269 269 269 268 268 269 268 268 268 268 268 268 268 268
273 274 273 273 273 273 273 272 272 272 271 271 271 271 270 270 270 270 269 269 269 269 268 269 268 269 268 268 268 268 268 268 268 267 267 267 267 267 268 268 268 268 267

GFSGL_850_thetae_096.txt.gz
Theta_e
331 328 330 330 328 327 327 328 325 324 321 323 324 323 323 323 323 324 323 322 323 323 324 324 325 325 323 321 321 318 317 316 316 316 319 319 319 319 319 319 320 320 320
329 327 326 323 325 322 328 327 324 322 323 323 323 323 323 324 324 324 324 323 322 323 323 322 324 322 323 322 320 318 317 317 317 320 321 320 320 320 320 320 319 318 318
323 325 326 326 325 326 328 324 323 323 324 324 323 323 323 324 324 323 322 322 323 323 321 323 324 323 321 321 319 319 318 319 319 320 319 319 320 320 317 316 316 316 316
321 323 323 325 325 327 325 325 324 324 324 324 324 323 323 323 321 322 322 323 323 322 323 323 322 322 322 321 320 320 319 321 320 320 319 317 319 319 318 316 317 317 317
315 321 322 324 323 325 326 325 325 325 323 322 321 321 320 320 321 321 322 321 322 322 323 323 323 322 323 321 320 319 320 320 320 319 318 318 317 316 316 316 317 316 316
309 311 313 319 319 321 324 325 325 324 323 322 321 320 319 317 321 321 321 322 322 321 322 321 322 322 321 322 321 320 320 319 319 318 318 317 318 318 317 317 316 315 314
306 306 306 311 314 315 318 323 325 323 321 321 319 318 318 318 319 321 319 320 321 321 321 322 321 320 322 321 321 320 320 320 320 320 319 319 318 317 316 317 316 315 315
303 305 307 307 307 313 302 314 319 320 321 320 318 317 318 318 318 321 320 319 319 320 321 321 321 321 320 321 320 320 320 319 318 317 318 317 317 316 316 316 315 313 311
298 300 301 304 304 304 305 302 305 311 315 316 315 314 315 317 318 319 318 318 317 317 316 316 317 318 318 318 317 317 316 317 317 316 316 316 316 315 314 313 309 307 306
295 297 297 299 301 306 301 301 302 302 302 304 307 309 308 311 314 315 312 314 315 314 312 311 309 310 309 311 312 313 314 311 308 311 308 307 306 306 305 305 303 302 302
293 294 296 297 297 296 298 300 299 301 301 300 301 300 301 302 302 303 305 307 308 306 305 303 302 301 302 302 305 305 306 304 302 304 303 302 300 298 298 296 296 296 295
293 294 294 294 295 295 296 295 296 297 297 296 297 298 298 297 297 299 300 301 300 302 301 298 298 298 298 298 301 300 300 299 299 297 296 295 293 293 292 292 291 292 292
292 293 293 293 293 293 294 294 295 295 294 293 293 293 292 293 293 295 296 297 297 298 296 294 294 296 295 295 295 295 294 292 292 292 291 290 290 289 288 288 287 287 286
291 291 291 291 291 292 292 292 292 292 291 291 291 291 291 291 292 292 293 293 293 293 292 292 293 293 293 292 291 290 290 290 289 289 289 287 286 285 284 284 283 283 282
289 289 289 290 290 291 291 290 290 290 290 289 289 289 290 289 289 290 290 290 290 290 291 291 291 291 291 289 289 289 287 285 284 283 283 282 282 281 281 281 281 281 281
288 287 287 288 288 289 289 289 288 288 288 288 287 289 288 288 288 289 289 289 288 288 289 289 289 287 285 284 282 282 281 281 281 281 281 280 280 280 280 280 279 279 279
286 286 286 286 286 286 286 287 288 286 287 287 286 286 286 287 286 287 285 284 283 283 282 281 281 280 280 280 279 279 279 279 279 279 279 279 278 278 278 277 277 277 277
283 283 283 283 283 282 281 283 284 284 284 284 284 284 284 284 283 282 281 281 281 280 280 280 279 279 278 278 278 278 278 278 277 277 277 277 276 276 276 276 276 276 275
281 281 281 281 281 281 281 280 280 279 279 279 279 280 280 280 279 279 279 279 279 279 278 278 277 277 277 277 276 276 276 276 276 276 276 275 275 275 275 274 274 274 273
280 280 280 280 280 280 280 279 279 279 278 278 278 278 277 278 278 278 278 277 277 277 277 276 276 276 275 275 275 275 275 275 275 275 275 274 274 273 273 273 272 272 272
279 279 279 279 279 279 278 278 278 277 276 277 277 276 276 276 276 276 276 276 276 275 275 275 275 274 274 274 274 274 274 273 273 273 273 273 272 272 272 272 271 271 271
278 278 278 277 278 277 277 277 277 276 276 275 275 275 274 274 274 274 274 274 274 274 274 273 273 273 273 273 272 272 272 272 272 272 272 272 271 271 271 271 271 271 271
277 277 277 277 277 276 276 276 276 275 275 274 274 273 273 273 273 273 273 273 273 273 272 272 272 272 272 271 272 272 272 271 271 271 271 271 271 270 270 270 270 270 270
275 275 275 275 275 275 275 274 274 274 273 273 273 272 272 271 271 271 271 271 271 271 271 271 271 271 271 271 271 271 271 271 271 270 270 270 270 270 269 269 269 269 269
273 273 273 273 273 273 273 273 272 272 272 272 271 271 270 270 270 270 270 269 269 269 270 270 270 269 269 270 270 270 270 270 270 270 269 269 269 269 269 269 268 268 268
271 271 271 271 271 271 271 271 271 271 271 270 270 270 269 269 269 269 268 268 268 268 268 268 268 268 268 268 268 268 269 269 269 269 269 269 268 268 268 268 268 268 268

GFSGL_850_thetae_099.txt.gz
Theta_e
325 328 330 329 330 330 331 331 329 325 322 324 328 331 328 323 324 325 325 325 325 324 323 323 323 324 324 324 325 324 323 321 320 319 318 317 317 318 318 319 319 319 319
324 325 327 329 329 329 328 328 325 320 322 326 324 323 323 323 323 324 324 324 324 324 324 323 324 323 325 324 324 324 322 321 318 319 315 317 319 319 319 319 319 319 319
322 325 327 327 325 326 324 324 325 325 324 323 324 323 323 322 322 323 324 324 323 323 322 322 323 323 323 323 323 323 322 319 318 317 317 317 319 319 319 319 319 319 319
314 320 322 325 325 325 326 325 325 324 323 325 323 322 322 322 324 323 323 322 322 323 322 323 321 321 321 323 321 322 321 320 318 316 318 318 320 320 320 320 319 318 317
310 313 317 319 321 324 325 326 325 323 324 324 322 322 323 323 322 324 323 322 322 322 322 322 322 322 322 323 322 321 321 319 317 317 319 320 319 319 318 317 316 316 316
304 308 309 314 316 318 323 321 323 325 325 322 323 324 321 320 320 320 321 320 322 322 321 321 321 321 322 321 320 321 320 319 317 319 319 319 318 318 317 318 317 316 314
301 303 305 305 308 310 314 319 320 316 324 323 321 321 319 318 318 320 320 320 320 321 321 321 321 321 321 320 320 321 319 319 319 320 320 319 319 318 318 318 317 316 316
298 298 300 302 303 305 306 304 306 307 314 320 319 318 318 317 318 319 319 319 320 320 320 321 320 320 320 320 319 319 319 319 319 320 320 319 318 318 318 317 317 315 313
296 297 298 298 300 303 305 304 304 301 301 312 314 314 315 315 317 317 315 318 318 318 318 318 317 318 318 317 320 319 319 319 319 318 317 319 317 317 316 315 313 312 309
293 294 296 298 299 299 300 301 301 302 301 300 304 307 308 309 308 308 310 313 315 315 313 313 313 313 314 315 314 315 315 314 315 313 317 314 314 311 311 311 309 308 307
292 293 294 295 296 297 298 298 299 300 301 301 300 301 301 301 301 302 304 307 308 309 306 305 305 304 306 306 307 307 308 305 305 306 305 304 304 304 305 303 303 302 303
291 292 293 294 294 294 295 296 296 296 296 296 296 297 298 297 298 298 299 301 300 302 301 298 297 299 300 301 301 301 300 299 299 300 299 299 298 297 298 298 297 295 295
291 291 291 291 292 293 292 293 293 294 293 293 294 293 292 292 293 293 295 296 297 297 295 295 296 296 296 297 297 295 295 293 293 293 291 290 289 289 288 289 289 288 288
290 290 290 290 290 290 291 291 290 290 291 291 290 290 290 290 291 292 292 293 293 293 292 292 293 293 294 294 292 292 292 292 291 290 289 288 287 286 285 284 283 282 282
288 288 289 289 290 289 289 288 287 288 289 289 289 290 290 289 289 290 290 291 291 291 292 291 291 291 291 290 290 289 289 286 286 286 285 284 283 282 282 282 282 281 282
287 287 287 287 287 287 287 287 287 287 287 288 288 288 288 288 288 288 288 288 289 289 290 290 290 289 289 288 287 285 283 283 282 281 281 280 280 280 280 280 280 280 280
284 284 284 284 284 285 285 285 285 284 285 286 285 285 285 285 285 283 282 282 283 284 285 283 283 282 281 281 281 281 281 280 280 280 280 279 279 279 279 279 279 279 278
281 281 282 282 282 282 281 281 282 283 283 283 283 283 283 282 281 281 281 281 281 280 280 280 280 279 279 279 279 279 279 279 278 278 278 278 278 278 278 277 277 276 276
280 280 280 280 280 280 280 280 280 279 279 279 279 279 280 279 279 279 279 279 280 279 279 278 278 278 277 277 277 277 277 277 277 277 277 277 276 276 276 275 275 275 275
279 279 279 279 279 279 279 279 278 278 278 278 278 277 277 278 278 278 278 278 278 278 277 277 277 276 276 276 276 276 275 275 275 275 275 275 275 274 274 274 274 273 273
278 278 278 278 278 278 278 277 277 277 276 276 276 276 276 276 276 276 276 276 276 275 275 275 275 275 275 275 275 275 274 274 274 274 274 273 273 273 273 273 272 272 272
277 277 277 277 277 277 277 277 276 276 275 275 275 274 274 274 274 274 274 274 274 274 274 274 274 274 274 274 273 273 273 273 273 273 272 272 272 272 272 272 271 271 271
275 275 275 275 276 276 275 275 275 275 274 274 273 273 273 272 272 272 272 272 272 272 272 272 272 272 272 272 272 272 272 272 272 272 271 271 271 271 271 271 270 270 270
274 274 273 273 274 274 274 274 273 273 273 273 272 272 271 271 271 271 271 271 270 270 270 270 270 271 271 271 271 271 271 271 271 271 271 271 270 270 270 270 270 270 270
272 272 272 272 272 272 272 272 272 272 271 271 271 271 271 270 270 270 270 269 269 269 269 269 269 269 270 270 270 270 270 270 270 270 270 270 269 269 269 269 269 269 269
271 271 270 270 271 271 271 271 270 270 270 270 270 269 269 269 269 269 269 268 268 268 268 268 268 268 268 268 268 269 269 269 269 269 269 269 269 268 268 268 268 268 268

GFSGL_850_thetae_102.txt.gz
Theta_e
316 323 326 326 327 328 329 329 330 330 330 328 323 326 327 329 328 329 329 328 324 324 326 325 324 324 324 323 324 325 324 323 323 322 322 322 320 318 319 318 318 318 318
311 316 323 325 326 328 329 328 329 329 329 327 326 323 322 327 329 328 328 326 324 325 325 325 325 324 324 324 324 325 324 323 324 322 320 320 318 317 319 319 319 319 319
308 314 319 323 324 325 326 326 329 327 327 323 322 322 321 326 325 324 324 325 325 325 324 324 324 324 324 323 324 324 324 324 324 322 320 320 318 318 316 317 319 319 319
302 309 314 320 323 325 325 324 326 324 321 323 322 320 323 323 324 325 324 324 324 324 324 324 323 323 323 323 322 323 322 323 323 320 320 319 318 316 319 319 319 319 319
302 309 311 315 320 318 324 324 324 325 325 324 323 324 323 323 323 323 323 323 323 323 322 323 323 322 323 322 322 321 322 322 321 319 319 317 316 318 319 319 319 318 318
300 300 302 308 311 315 316 322 323 324 324 324 325 322 322 322 323 323 323 322 321 321 322 322 322 321 321 322 321 322 322 320 320 319 318 317 317 317 319 318 319 318 315
298 299 300 302 303 307 309 312 309 316 317 320 324 322 322 322 323 322 320 320 320 321 322 322 322 321 320 320 322 320 320 319 320 320 318 318 317 317 317 318 319 319 318
296 297 299 300 302 303 303 304 304 305 308 308 315 321 321 321 319 319 320 319 319 319 320 321 320 320 320 320 320 319 319 319 319 320 318 317 318 318 319 319 318 318 317
294 294 295 297 298 299 301 301 302 302 302 302 304 304 316 316 316 317 318 318 318 318 318 319 319 319 319 318 318 319 319 318 318 318 318 317 319 318 318 318 317 316 312
292 293 294 295 295 296 296 297 298 301 302 301 301 297 305 307 310 313 311 313 313 312 313 314 314 314 315 313 313 315 317 317 316 315 317 317 317 318 317 317 314 315 313
292 293 293 293 293 293 294 295 295 296 299 300 300 299 299 300 301 303 305 306 306 305 305 306 307 307 309 310 310 311 312 311 312 312 313 313 314 310 310 308 307 305 306
291 291 291 292 292 292 292 292 293 294 294 295 295 295 295 295 295 298 299 301 300 301 299 298 299 301 303 304 305 305 305 303 302 303 303 302 302 301 301 300 301 300 301
291 291 290 291 292 291 292 292 291 291 291 291 291 291 291 292 292 293 294 295 296 297 296 296 296 297 298 298 298 297 297 298 298 298 296 294 294 295 295 297 296 296 296
287 288 289 290 290 291 291 291 291 291 290 289 289 289 289 290 290 292 292 292 293 293 292 292 292 294 295 294 293 293 293 293 293 292 292 291 289 288 289 289 290 288 288
285 285 285 285 285 286 288 288 288 288 290 290 289 289 289 289 288 290 290 290 291 291 291 291 291 291 290 290 290 289 289 289 289 289 288 287 285 284 283 283 282 283 283
284 284 284 284 284 284 284 283 285 286 287 288 288 288 288 287 287 287 288 289 289 289 289 289 289 289 288 288 288 287 287 288 287 287 287 287 287 287 286 285 284 282 282
282 282 282 282 282 282 282 282 282 283 284 284 285 284 284 284 283 282 282 283 286 287 287 287 286 286 285 285 285 284 284 283 282 281 281 280 280 280 280 280 280 280 279
281 281 281 280 280 280 280 280 280 280 280 280 280 281 281 280 280 280 281 280 281 281 281 280 280 280 279 279 279 279 279 279 279 279 279 279 278 278 278 278 277 277 277
279 280 280 280 279 279 280 279 279 279 279 278 278 278 279 279 278 279 279 279 279 279 279 279 278 278 278 278 278 278 278 278 278 278 277 277 277 277 277 277 277 276 276
280 278 279 279 279 279 279 279 279 278 278 277 276 276 277 277 277 277 277 276 276 276 276 276 276 277 277 276 276 276 276 276 276 276 276 276 276 276 275 275 275 275 274
279 279 278 279 279 278 278 278 278 278 277 276 275 275 275 275 275 275 274 274 274 274 274 274 275 275 275 275 275 275 275 275 275 275 275 275 275 274 274 274 273 273 273
277 278 278 278 278 277 277 277 277 276 276 275 275 274 274 274 273 273 272 273 273 272 272 273 273 274 274 274 274 274 274 274 274 274 273 273 273 273 273 273 272 272 272
275 275 276 276 276 275 276 276 275 275 275 274 274 273 273 272 272 271 271 271 271 272 272 272 272 273 273 273 273 273 273 273 272 272 272 272 271 271 271 271 271 271 271
274 274 274 274 274 274 274 274 274 274 273 273 273 272 272 271 270 270 270 270 271 271 271 271 271 271 271 271 271 271 272 272 272 272 271 271 271 270 270 270 270 270 270
272 272 272 272 272 272 272 273 273 273 272 272 272 271 271 270 270 269 268 269 269 269 270 269 270 270 270 270 270 270 270 270 271 271 270 270 270 270 270 269 269 269 269
271 271 271 271 271 271 271 271 271 271 271 271 271 271 270 270 270 269 268 267 267 268 268 267 268 268 268 268 269 269 269 269 269 269 269 269 269 269 269 268 268 267 268

GFSGL_850_thetae_105.txt.gz
Theta_e
312 314 319 324 327 328 328 329 331 331 331 332 332 332 330 328 327 322 321 322 328 331 329 326 324 326 326 326 325 325 325 325 325 325 324 324 324 323 324 319 316 314 314
306 312 316 318 322 326 327 329 329 330 329 331 330 329 329 328 324 322 323 322 324 329 328 325 326 328 326 325 325 324 324 324 325 325 324 323 323 323 322 319 317 316 316
305 308 314 313 317 322 326 328 328 328 329 330 329 328 326 325 325 323 322 318 324 327 327 324 324 327 325 325 325 324 324 324 326 325 324 323 323 323 321 319 319 320 317
303 304 311 310 310 317 319 322 327 328 328 327 328 328 326 325 325 323 324 327 327 325 325 325 325 325 324 324 324 324 324 324 323 324 324 322 323 322 320 318 320 319 319
300 301 302 302 306 310 316 317 323 325 325 325 325 326 325 327 324 321 323 323 324 325 325 325 325 325 324 324 324 323 323 323 322 322 322 322 320 319 318 318 319 318 318
298 299 299 301 304 308 308 313 319 316 322 323 323 324 326 324 324 322 323 327 325 324 323 322 323 323 322 323 322 322 322 322 322 321 320 320 320 319 317 318 317 317 317
297 297 297 299 300 302 302 306 312 310 315 319 320 322 323 324 324 324 323 323 323 323 322 322 322 321 322 322 321 321 322 322 321 321 321 320 320 319 319 318 318 318 317
295 295 295 296 297 298 299 300 301 302 303 305 306 310 313 322 323 323 323 322 322 321 320 320 320 321 321 321 320 319 321 321 320 319 318 319 318 318 318 318 316 318 315
292 293 292 294 294 296 296 297 299 300 300 300 301 301 297 309 313 318 320 319 320 319 318 318 319 319 319 319 319 319 319 320 319 318 318 318 318 318 317 317 318 317 313
291 291 291 292 292 292 293 294 295 296 295 297 299 300 298 301 300 303 313 316 316 315 315 314 316 314 315 315 315 316 317 318 317 317 318 318 318 318 317 317 318 317 316
290 291 292 291 291 291 291 292 292 292 294 295 295 296 297 299 299 300 301 305 306 307 307 307 306 307 309 308 309 310 311 313 312 313 315 316 316 316 315 314 313 313 315
290 290 291 292 291 291 292 291 292 292 291 291 291 291 292 295 295 294 297 298 298 300 300 299 299 301 303 305 305 306 306 307 306 307 308 308 306 306 307 307 307 307 304
288 288 288 289 290 291 291 292 292 290 291 290 290 290 290 290 290 292 293 295 295 295 293 294 296 296 297 299 298 297 297 299 301 301 300 298 297 298 297 298 298 299 300
287 287 287 286 287 288 289 289 290 290 289 289 290 290 290 290 290 290 291 291 291 292 288 290 292 293 294 293 294 293 293 294 295 295 294 293 292 292 293 293 293 293 294
286 285 286 286 286 286 286 285 285 285 287 288 287 288 288 289 288 289 290 291 291 290 290 289 290 290 290 290 289 290 290 289 289 289 289 289 290 291 290 289 290 289 291
285 285 284 285 285 285 284 285 284 282 282 284 285 285 283 282 283 285 288 289 289 289 289 289 288 288 287 287 287 286 287 287 286 286 286 285 284 284 283 284 284 284 284
282 283 283 283 283 283 283 283 283 283 282 281 280 280 281 281 281 282 282 282 285 287 288 288 286 286 285 285 285 285 285 285 284 284 285 285 285 286 285 285 284 283 282
281 281 282 281 281 282 282 282 282 282 282 281 280 280 279 279 279 280 280 281 281 281 281 280 280 280 280 280 280 281 281 281 281 281 281 280 280 280 279 279 279 279 279
281 280 281 281 281 281 282 282 281 281 281 280 279 279 279 279 279 278 279 279 279 278 278 278 277 277 277 277 278 278 278 278 278 278 278 278 278 279 278 278 278 278 278
282 280 280 281 281 281 281 281 281 281 280 280 277 276 277 279 279 278 277 277 278 277 277 276 276 276 275 276 276 276 276 276 276 277 277 277 277 277 277 277 277 277 276
280 280 279 280 280 280 280 280 280 280 279 279 278 276 275 277 277 276 276 275 275 275 275 275 275 274 274 274 274 274 275 275 275 275 275 275 276 276 276 276 275 275 275
278 278 279 279 279 279 278 279 278 278 278 277 277 276 275 275 275 275 274 272 272 272 273 273 273 272 272 272 273 273 273 273 273 273 274 274 274 274 274 274 274 274 274
277 277 277 277 277 277 277 277 277 277 277 276 276 275 275 274 273 273 272 271 271 270 271 271 270 270 271 272 272 272 271 272 273 272 272 272 273 273 273 273 273 273 273
276 276 276 276 275 275 276 275 276 276 275 275 275 274 274 273 272 272 271 269 269 269 268 269 270 271 270 270 270 272 272 272 272 271 272 271 272 272 272 271 271 271 271
274 274 274 274 274 274 274 274 274 274 274 274 274 273 273 273 272 272 271 270 268 268 268 268 267 268 270 269 270 270 271 271 271 271 271 270 270 270 270 270 270 270 270
274 273 273 273 273 273 273 272 272 272 272 272 272 272 272 272 271 271 271 270 268 268 268 267 267 268 268 268 269 269 269 269 269 269 270 269 269 268 269 269 269 269 269

GFSGL_850_thetae_108.txt.gz
Theta_e
302 304 307 310 316 316 321 324 328 328 327 329 331 331 331 330 330 331 330 331 330 328 329 327 326 329 328 326 327 326 326 326 326 325 325 325 325 325 324 323 324 324 321
300 302 305 308 312 315 319 322 324 326 325 328 330 329 331 331 330 329 330 330 328 327 324 327 322 328 328 326 325 326 326 325 325 324 325 325 324 324 324 324 323 322 321
300 301 302 306 310 312 316 320 322 324 322 326 326 327 327 327 329 328 329 326 324 321 320 319 327 327 325 324 326 327 325 325 324 324 324 325 324 324 324 322 322 322 320
298 299 300 302 305 307 311 315 316 321 324 327 327 327 323 327 328 328 327 322 322 322 321 321 322 327 324 324 325 325 324 325 324 324 324 324 324 324 323 323 321 321 318
296 296 297 300 302 304 305 307 311 316 318 321 327 326 327 327 327 326 326 325 323 322 321 320 326 324 324 326 324 324 324 323 323 323 324 322 323 322 322 321 321 320 317
294 294 296 298 300 301 301 303 305 310 315 310 318 325 323 326 326 325 325 324 325 322 322 323 323 324 324 324 325 324 323 323 322 321 323 321 321 322 321 321 320 318 316
292 293 295 295 297 297 298 300 300 302 304 310 308 314 320 321 324 325 325 325 326 324 323 322 324 323 322 322 321 321 322 322 322 322 322 322 322 321 320 321 320 319 318
291 292 293 294 294 295 296 296 297 297 299 301 303 302 304 307 318 321 324 324 323 324 322 322 322 322 322 321 321 321 322 321 321 320 321 321 321 320 320 321 320 319 316
291 291 292 292 292 292 292 292 292 294 295 296 298 300 301 301 303 305 312 318 320 319 320 319 320 319 319 319 320 320 319 318 319 320 320 320 319 319 319 319 318 317 313
290 291 291 291 291 291 290 291 291 292 292 294 295 295 297 299 300 299 301 302 309 309 311 315 316 317 317 317 318 318 317 315 315 317 318 318 318 318 318 318 319 318 316
289 290 290 291 291 291 292 292 291 290 291 292 293 294 293 293 295 297 298 300 299 299 300 305 308 309 311 309 311 312 311 312 312 312 313 315 316 316 316 315 316 317 316
288 289 288 289 290 290 291 291 291 291 291 291 291 292 292 292 292 292 294 295 296 297 296 295 298 299 301 301 303 304 305 306 305 306 307 308 308 309 311 314 311 310 311
287 287 287 288 288 288 289 289 290 290 290 289 290 290 290 290 290 291 292 292 293 292 291 292 292 295 295 296 295 295 297 299 300 300 300 301 300 301 302 303 303 304 304
286 286 286 285 285 285 285 285 285 285 286 286 286 286 288 289 289 288 289 290 290 290 290 290 291 292 293 292 293 293 293 294 296 296 295 293 292 293 295 296 297 297 298
285 285 285 285 285 284 284 284 283 282 280 282 282 283 283 283 284 286 288 288 289 289 289 290 290 290 290 290 290 290 289 288 289 289 290 290 290 290 290 290 291 292 291
284 284 283 283 283 283 283 283 283 283 282 280 279 279 280 280 281 282 284 286 288 288 289 288 287 287 287 286 287 287 286 287 287 286 287 287 288 289 289 289 289 290 289
282 282 282 282 282 282 282 282 282 282 282 281 280 279 279 279 279 280 281 281 282 283 285 285 284 284 284 284 285 285 285 285 284 285 285 285 285 285 285 285 286 286 285
281 281 282 281 281 282 282 282 281 281 281 280 280 279 279 279 279 279 280 280 280 280 280 279 279 279 280 281 281 281 282 282 282 283 283 282 281 282 282 283 282 282 282
281 280 282 281 281 281 281 281 281 280 280 280 279 278 279 279 278 278 278 279 278 278 277 277 277 277 277 278 278 278 279 279 279 280 280 281 281 281 280 280 279 278 278
280 280 280 280 280 280 280 280 280 279 279 279 278 277 276 277 277 276 276 276 276 276 276 276 276 276 276 276 276 277 277 277 278 278 278 278 278 278 277 277 278 277 277
279 279 279 279 279 279 278 279 279 278 278 277 277 276 275 275 276 275 274 274 274 274 274 275 274 274 274 274 275 275 275 276 276 276 277 277 277 277 277 277 277 277 276
277 277 277 278 277 277 277 277 277 277 277 277 276 275 275 274 274 273 273 272 272 272 272 272 272 272 273 273 273 273 273 274 274 274 274 275 275 275 275 275 275 275 275
276 276 276 276 276 275 275 275 276 276 275 275 275 275 274 274 273 273 272 271 271 270 271 271 271 271 271 271 271 272 273 273 273 273 273 273 273 274 274 274 274 274 274
275 275 275 274 274 274 274 274 274 274 274 274 274 275 274 273 273 272 272 271 271 270 270 269 270 270 269 270 271 271 271 271 272 272 272 272 273 273 273 273 273 273 273
274 274 274 274 273 273 273 273 273 272 272 272 272 272 272 272 272 272 272 271 270 269 269 268 268 268 269 269 269 269 270 270 270 270 271 271 271 272 272 271 271 271 271
274 274 273 273 273 273 273 272 272 272 271 271 271 271 271 271 271 271 271 270 270 269 269 268 268 268 267 268 268 268 268 269 269 269 269 270 270 270 270 270 270 270 270

GFSGL_850_thetae_111.txt.gz
Theta_e
301 303 305 306 307 308 310 312 314 317 319 324 326 327 324 324 325 325 326 328 328 328 327 320 320 320 322 323 323 326 326 327 326 326 326 325 324 324 325 325 324 323 324
299 301 302 302 303 306 306 310 313 316 319 321 325 326 326 325 324 325 326 328 327 328 327 326 324 325 325 326 325 326 325 324 326 325 325 325 324 324 324 324 325 324 324
298 299 300 300 301 302 304 308 310 313 318 321 322 321 323 325 325 326 330 329 328 328 328 325 320 324 322 325 325 325 325 325 325 325 325 325 324 324 324 324 324 324 323
297 297 297 298 298 299 302 304 307 309 314 319 321 323 321 323 325 326 327 328 329 329 326 325 321 320 319 324 324 324 324 324 323 324 324 325 323 323 324 324 323 323 323
295 295 295 294 295 297 299 301 303 305 307 310 313 315 319 323 321 320 324 326 326 327 326 320 321 321 320 324 325 324 323 322 323 324 325 324 323 323 323 323 323 323 322
293 293 293 293 293 294 296 298 300 301 301 303 306 311 315 316 322 321 320 326 326 325 323 322 324 325 322 324 322 323 323 323 324 324 323 323 321 323 323 322 323 321 320
292 292 292 292 292 292 293 295 295 296 297 299 300 303 306 312 317 320 323 324 325 323 322 322 320 325 324 324 324 323 323 322 323 321 322 322 321 322 321 322 321 321 322
291 291 291 292 293 292 293 293 293 292 293 296 296 298 301 302 305 315 309 321 317 320 320 321 320 321 323 323 323 322 321 321 320 320 321 321 322 321 321 321 322 320 320
290 291 291 292 293 293 292 292 291 292 292 293 293 294 296 297 300 303 304 306 298 309 309 316 319 319 320 321 321 320 320 319 320 321 320 320 320 320 320 321 320 317 313
288 289 290 291 291 292 292 292 291 291 291 292 292 291 293 294 296 298 301 301 301 299 296 300 305 312 316 318 318 318 318 316 316 316 317 319 319 319 318 319 319 319 314
287 288 289 289 289 290 290 290 291 291 292 292 292 291 290 290 291 294 296 298 298 299 297 296 296 298 302 307 314 313 312 311 312 312 315 316 317 317 317 316 316 314 316
286 286 286 286 286 287 287 288 288 287 287 289 291 291 290 289 289 290 290 292 294 295 295 293 293 293 294 300 302 304 304 305 304 306 308 310 310 312 312 312 311 309 310
286 285 285 285 285 285 284 284 284 284 285 284 284 284 287 289 289 289 289 290 290 290 290 291 292 293 293 295 295 296 297 299 300 300 302 303 302 303 304 305 305 305 306
284 284 284 284 284 284 283 283 283 282 281 281 281 282 282 283 284 286 288 289 289 289 289 290 290 291 292 292 293 292 293 293 295 296 295 296 295 296 297 298 300 301 300
283 283 283 283 283 282 282 282 281 281 280 280 280 279 280 281 281 281 282 286 287 288 289 290 290 290 289 289 289 290 289 290 290 290 291 291 292 293 292 293 295 296 297
282 282 281 282 282 282 281 281 281 281 280 279 279 280 279 279 280 280 280 281 282 285 288 287 286 286 286 285 285 286 286 287 287 288 289 290 290 291 291 290 291 292 292
281 282 282 281 281 281 281 281 280 280 280 279 278 280 279 278 279 279 280 280 280 281 281 281 281 282 282 283 283 284 284 284 285 286 286 286 287 288 288 288 288 288 288
280 281 281 281 281 281 280 280 280 279 279 278 278 277 278 277 277 277 278 279 280 279 278 277 278 278 278 279 280 281 281 282 283 283 284 285 285 285 285 285 286 286 286
280 280 280 280 279 279 279 279 278 278 278 277 277 276 276 276 276 276 276 276 276 276 276 276 276 276 277 277 277 278 278 279 280 281 281 282 282 283 284 284 284 284 284
279 279 278 278 278 278 278 278 278 277 277 276 276 275 275 275 275 274 274 274 274 274 274 274 274 275 275 276 276 276 277 278 278 278 278 278 278 279 279 279 279 281 280
277 277 277 277 276 276 276 276 276 276 276 275 275 275 274 274 273 273 272 272 272 272 272 272 273 273 273 274 274 275 275 275 276 277 277 277 277 277 277 278 278 278 278
276 276 276 275 275 275 274 275 275 275 275 275 275 275 274 273 273 272 272 272 271 271 271 271 271 271 271 272 272 273 273 274 274 275 275 276 276 276 277 277 276 276 276
275 275 274 274 274 273 273 273 273 273 273 273 273 273 273 273 272 272 272 272 271 271 270 270 270 270 269 270 271 271 272 272 273 273 273 274 274 275 275 275 275 275 275
274 274 273 273 273 273 273 273 272 272 272 272 272 272 272 272 272 272 271 271 270 270 269 269 269 268 269 269 269 269 270 270 270 272 272 273 273 273 273 274 274 274 274
274 273 273 273 273 273 273 273 273 272 272 271 271 271 271 271 270 270 270 270 270 269 269 268 268 268 268 268 268 268 268 269 269 270 271 272 272 272 273 273 272 273 273
273 273 272 272 272 272 272 271 271 271 271 272 271 271 270 270 270 269 269 269 269 269 268 268 268 267 267 267 267 267 267 267 268 268 269 270 271 271 271 271 271 271 271

GFSGL_850_thetae_114.txt.gz
Theta_e
300 301 302 302 302 304 306 307 308 311 313 315 315 317 319 321 327 321 323 322 320 322 323 323 324 324 326 324 324 323 323 326 327 326 324 324 325 324 324 323 322 321 321
300 299 298 299 301 302 303 305 306 308 310 311 314 316 320 321 326 326 323 323 323 323 325 324 325 325 325 325 324 322 321 325 326 325 324 324 325 324 324 325 323 323 323
297 297 297 297 298 299 300 302 304 305 306 308 311 314 317 321 322 324 325 324 321 323 324 325 325 324 323 324 323 321 322 323 325 322 324 323 325 325 324 324 324 324 324
295 295 296 295 295 296 297 299 300 301 302 305 307 309 312 315 320 322 323 323 323 324 324 326 327 325 321 320 321 321 320 320 325 324 323 323 323 323 323 324 324 324 324
294 294 294 294 294 295 295 295 296 298 298 300 302 304 309 310 313 321 321 320 318 317 326 328 326 324 318 323 322 320 322 324 324 324 324 324 322 321 324 323 323 324 323
293 293 293 294 294 294 294 294 294 296 297 296 298 299 302 306 308 315 317 319 319 321 326 327 325 324 322 321 322 322 322 324 324 323 322 322 322 322 323 323 323 323 323
292 292 292 293 293 294 294 293 292 293 294 293 294 294 295 298 302 307 310 318 319 319 323 324 323 322 321 322 321 323 325 324 323 322 321 323 321 323 322 321 320 321 321
292 292 292 292 292 293 294 294 293 292 292 291 292 292 292 294 298 301 303 306 310 314 313 314 319 321 322 322 321 323 321 323 323 322 323 322 322 321 320 321 321 322 322
289 288 289 289 290 290 291 291 292 292 292 291 291 292 291 290 293 298 301 301 302 302 302 301 309 313 320 317 320 321 324 321 322 322 321 320 319 319 320 320 321 321 321
286 286 286 286 286 287 287 286 289 290 290 290 291 290 290 290 291 293 296 298 300 299 301 301 301 301 307 309 311 314 317 321 320 320 319 318 319 320 320 320 320 320 320
286 286 286 285 285 284 284 286 286 286 285 286 288 289 289 289 289 290 293 294 294 294 295 297 298 299 300 301 301 304 308 310 316 316 317 317 317 317 317 318 318 318 317
286 285 285 285 284 284 284 284 284 284 284 284 284 284 283 286 288 288 288 290 292 293 292 292 293 294 298 299 299 296 300 299 303 309 310 310 312 312 313 314 312 314 314
284 284 284 283 283 283 283 284 284 282 282 282 281 282 282 282 283 285 288 288 289 290 290 291 292 293 294 295 295 294 296 296 297 299 302 304 304 304 306 308 309 309 307
283 283 282 282 282 281 281 281 280 280 279 280 281 280 280 280 281 281 282 285 287 288 289 289 290 291 291 291 292 292 292 293 294 294 293 296 295 298 297 300 302 302 302
282 282 281 281 281 281 281 280 280 279 278 279 279 279 279 279 279 279 280 281 282 284 287 288 289 289 288 288 288 289 289 289 289 290 291 291 293 293 294 294 296 296 298
282 281 281 281 281 281 280 280 279 279 278 277 278 278 277 277 277 278 279 280 280 281 282 282 283 283 283 284 285 285 286 286 287 287 288 289 290 291 291 291 293 294 294
281 281 281 280 280 280 279 279 279 278 277 277 276 276 276 275 276 277 277 278 279 280 280 278 278 278 279 281 281 282 283 283 284 285 286 287 288 288 289 289 289 289 289
280 280 279 279 279 279 279 278 278 277 277 276 276 275 275 274 275 275 275 277 278 277 277 276 276 276 277 277 278 279 280 281 282 282 283 283 285 286 286 287 287 287 287
279 279 278 278 277 278 278 277 277 276 276 275 275 274 274 274 274 274 274 274 273 274 274 274 274 275 275 276 276 277 278 278 279 279 280 281 282 283 284 285 285 285 285
278 278 277 277 276 276 276 276 276 275 275 275 274 274 274 273 273 272 272 272 272 272 272 272 272 273 273 274 274 275 276 276 277 278 278 278 278 279 280 282 282 283 283
276 276 275 275 274 274 274 274 274 274 274 274 274 273 273 273 272 272 271 271 271 271 271 270 271 271 271 272 272 273 273 274 275 276 277 277 277 277 278 278 278 278 278
275 274 274 274 273 273 273 273 272 272 272 272 273 273 272 272 272 271 271 271 270 270 270 269 269 270 270 270 270 271 272 272 273 274 275 275 276 276 277 277 277 277 276
274 274 274 273 273 273 273 273 272 272 271 271 271 271 271 271 271 271 271 270 270 270 269 269 268 268 268 269 269 270 270 270 271 272 273 273 274 275 275 275 275 275 275
274 274 273 273 273 273 272 272 272 272 272 272 271 271 270 270 270 270 269 269 269 269 268 268 268 268 267 267 267 268 268 269 269 270 271 272 273 273 273 274 274 274 274
274 273 272 272 272 272 271 271 271 271 271 271 271 271 271 270 270 269 269 269 269 268 268 268 267 267 267 267 267 267 267 267 268 269 270 270 271 272 272 273 273 273 273
273 272 271 271 271 270 269 269 269 269 269 269 270 270 270 270 270 269 269 269 269 268 268 268 267 267 266 266 266 266 266 267 267 267 268 269 270 270 270 271 271 271 271